DW3740 Weather Reports


Display with metric or nautical units.
time (UTC)temp
F
wind
direction
speed
MPH
gust
MPH
rain 1hr
in
rain 24hr
in
rain mn
in
humidity
%
barometer
mb
20191120070436 59 360 0.0 10.0 0.00 0.00 0.00 73 1017.7
20191120070329 59 360 4.0 10.0 0.00 0.00 0.00 73 1017.6
20191120070228 59 360 0.0 8.0 0.00 0.00 0.00 73 1017.6
20191120070121 59 360 0.0 8.0 0.00 0.00 0.00 74 1017.6
20191120070031 59 360 0.0 8.0 0.00 0.00 0.00 74 1017.7
20191120065920 59 360 1.0 8.0 0.00 0.00 0.00 74 1017.7
20191120065831 59 360 1.0 8.0 0.00 0.00 0.00 74 1017.8
20191120065721 59 360 1.0 8.0 0.00 0.00 0.00 74 1017.9
20191120065632 59 360 0.0 8.0 0.00 0.00 0.00 74 1017.8
20191120065526 59 360 0.0 8.0 0.00 0.00 0.00 74 1017.9
20191120065437 59 360 0.0 8.0 0.00 0.00 0.00 75 1017.9
20191120065328 59 360 0.0 8.0 0.00 0.00 0.00 75 1018.0
20191120065219 59 360 1.0 8.0 0.00 0.00 0.00 75 1017.9
20191120065128 59 360 2.0 8.0 0.00 0.00 0.00 75 1017.8
20191120065022 59 360 0.0 8.0 0.00 0.00 0.00 75 1017.9
20191120064932 59 360 3.0 8.0 0.00 0.00 0.00 75 1018.0
20191120064845 59 360 4.0 8.0 0.00 0.00 0.00 75 1018.0
20191120064724 58 360 0.0 9.0 0.00 0.00 0.00 75 1018.0
20191120064634 58 360 0.0 9.0 0.00 0.00 0.00 75 1018.0
20191120064524 58 360 0.0 9.0 0.00 0.00 0.00 75 1018.0
20191120064418 58 360 0.0 10.0 0.00 0.00 0.00 75 1018.0
20191120064328 58 360 2.0 12.0 0.00 0.00 0.00 75 1018.1
20191120064218 58 360 3.0 12.0 0.00 0.00 0.00 75 1018.1
20191120064128 58 360 3.0 12.0 0.00 0.00 0.00 75 1018.1
20191120064018 58 360 4.0 12.0 0.00 0.00 0.00 75 1018.0
20191120063928 58 360 5.0 12.0 0.00 0.00 0.00 75 1018.1
20191120063824 58 360 4.0 12.0 0.00 0.00 0.00 75 1018.1
20191120063735 58 360 4.0 12.0 0.00 0.00 0.00 75 1018.1
20191120063626 58 360 5.0 12.0 0.00 0.00 0.00 76 1018.1
20191120063537 58 360 4.0 12.0 0.00 0.00 0.00 76 1018.1
20191120063427 58 360 1.0 9.0 0.00 0.00 0.00 76 1018.1
20191120063340 58 360 3.0 9.0 0.00 0.00 0.00 76 1018.0
20191120063224 58 360 4.0 9.0 0.00 0.00 0.00 76 1018.1
20191120063134 58 360 3.0 9.0 0.00 0.00 0.00 76 1018.1
20191120063024 58 360 1.0 5.0 0.00 0.00 0.00 76 1018.0
20191120062934 58 360 1.0 5.0 0.00 0.00 0.00 76 1018.1
20191120062825 58 360 0.0 5.0 0.00 0.00 0.00 76 1018.1
20191120062720 58 360 0.0 5.0 0.00 0.00 0.00 76 1018.1
20191120062630 58 360 0.0 5.0 0.00 0.00 0.00 77 1018.1
20191120062520 58 360 0.0 5.0 0.00 0.00 0.00 77 1018.2
20191120062431 58 360 0.0 5.0 0.00 0.00 0.00 77 1018.1
20191120062322 57 360 0.0 5.0 0.00 0.00 0.00 77 1018.1
20191120062236 57 360 1.0 5.0 0.00 0.00 0.00 77 1018.2
20191120062126 57 360 0.0 3.0 0.00 0.00 0.00 77 1018.1
20191120062036 57 360 0.0 7.0 0.00 0.00 0.00 77 1018.2
20191120061926 57 360 0.0 7.0 0.00 0.00 0.00 77 1018.4
20191120061840 57 360 0.0 7.0 0.00 0.00 0.00 77 1018.3
20191120061724 57 360 0.0 7.0 0.00 0.00 0.00 78 1018.2
20191120061634 57 360 0.0 7.0 0.00 0.00 0.00 78 1018.3
20191120061524 57 360 0.0 7.0 0.00 0.00 0.00 78 1018.2
20191120061433 57 360 0.0 7.0 0.00 0.00 0.00 78 1018.2
20191120061324 57 360 0.0 7.0 0.00 0.00 0.00 78 1018.2
20191120061218 57 360 4.0 7.0 0.00 0.00 0.00 78 1018.2
20191120061128 57 360 2.0 7.0 0.00 0.00 0.00 78 1018.1
20191120061018 57 360 1.0 5.0 0.00 0.00 0.00 79 1018.1
20191120060928 57 360 0.0 5.0 0.00 0.00 0.00 79 1018.1
20191120060819 57 360 0.0 5.0 0.00 0.00 0.00 79 1018.0
20191120060729 57 360 0.0 5.0 0.00 0.00 0.00 79 1018.1
20191120060623 57 360 0.0 5.0 0.00 0.00 0.00 79 1018.0
20191120060421 57 360 1.0 5.0 0.00 0.00 0.00 79 1018.0
20191120060334 57 360 2.0 5.0 0.00 0.00 0.00 79 1018.0
20191120060234 57 360 0.0 4.0 0.00 0.00 0.00 79 1018.1
20191120060129 57 360 0.0 4.0 0.00 0.00 0.00 79 1018.0
20191120060019 57 360 0.0 4.0 0.00 0.00 0.00 79 1018.0
20191120055929 57 360 0.0 5.0 0.00 0.00 0.00 79 1018.0
20191120055820 57 360 0.0 11.0 0.00 0.00 0.00 80 1018.0
20191120055731 57 12 0.0 11.0 0.00 0.00 0.00 80 1018.0
20191120055624 57 360 0.0 11.0 0.00 0.00 0.00 80 1018.0
20191120055533 57 360 0.0 11.0 0.00 0.00 0.00 80 1018.0
20191120055424 56 360 0.0 11.0 0.00 0.00 0.00 80 1018.0
20191120055333 56 360 0.0 11.0 0.00 0.01 0.00 80 1018.1
20191120055224 56 360 0.0 11.0 0.00 0.01 0.00 80 1018.1
20191120055133 56 360 1.0 11.0 0.00 0.01 0.00 80 1018.2
20191120055027 56 360 7.0 11.0 0.00 0.01 0.00 80 1018.1
20191120054937 56 360 7.0 11.0 0.00 0.01 0.00 81 1018.2
20191120054830 56 360 0.0 8.0 0.00 0.01 0.00 81 1018.2
20191120054729 56 360 2.0 8.0 0.00 0.01 0.00 81 1018.2
20191120054639 56 360 5.0 8.0 0.00 0.01 0.00 81 1018.2
20191120054529 56 360 1.0 8.0 0.00 0.01 0.00 81 1018.2
20191120054423 56 360 0.0 8.0 0.00 0.01 0.00 81 1018.2
20191120054333 56 360 0.0 9.0 0.00 0.01 0.00 82 1018.1
20191120054224 56 360 2.0 9.0 0.00 0.01 0.00 82 1018.1
20191120054133 56 360 4.0 9.0 0.00 0.01 0.00 82 1018.1
20191120054025 55 360 1.0 9.0 0.00 0.01 0.00 82 1018.1
20191120053933 55 360 0.0 9.0 0.00 0.01 0.00 82 1018.0
20191120053828 55 360 1.0 9.0 0.00 0.01 0.00 83 1018.1
20191120053718 55 360 0.0 9.0 0.00 0.01 0.00 83 1018.1
20191120053630 55 360 2.0 9.0 0.00 0.01 0.00 83 1018.1
20191120053520 55 360 3.0 9.0 0.00 0.01 0.00 84 1018.0
20191120053430 55 360 3.0 9.0 0.00 0.01 0.00 84 1018.0
20191120053346 55 360 1.0 7.0 0.00 0.01 0.00 84 1018.1
20191120053225 55 360 0.0 1.0 0.00 0.01 0.00 84 1018.1
20191120053135 55 360 0.0 1.0 0.00 0.01 0.00 84 1018.1
20191120053024 55 360 0.0 1.0 0.00 0.01 0.00 84 1018.1
20191120052933 55 360 0.0 1.0 0.00 0.01 0.00 84 1018.1
20191120052828 55 360 0.0 0.0 0.00 0.01 0.00 85 1018.1
20191120052718 55 360 0.0 0.0 0.00 0.01 0.00 85 1018.1
20191120052629 54 360 0.0 0.0 0.00 0.01 0.00 85 1018.2
20191120052521 54 360 0.0 0.0 0.00 0.01 0.00 85 1018.2
20191120052431 54 360 0.0 0.0 0.00 0.01 0.00 85 1018.3
20191120052324 54 360 0.0 0.0 0.00 0.01 0.00 85 1018.2
20191120052233 54 360 0.0 0.0 0.00 0.01 0.00 85 1018.2
20191120052124 54 360 0.0 0.0 0.00 0.01 0.00 85 1018.1
20191120052035 54 360 0.0 0.0 0.00 0.01 0.00 85 1018.2
20191120051925 54 360 0.0 0.0 0.00 0.01 0.00 85 1018.2
20191120051841 54 360 0.0 0.0 0.00 0.01 0.00 86 1018.2
20191120051722 54 360 0.0 0.0 0.00 0.01 0.00 86 1018.2
20191120051632 54 360 0.0 0.0 0.00 0.01 0.00 86 1018.2
20191120051522 54 360 0.0 0.0 0.00 0.01 0.00 86 1018.2
20191120051432 54 360 0.0 0.0 0.00 0.01 0.00 86 1018.2
20191120051323 54 360 0.0 0.0 0.00 0.01 0.00 86 1018.2
20191120051236 54 360 0.0 0.0 0.00 0.01 0.00 86 1018.2
20191120051126 54 360 0.0 0.0 0.00 0.01 0.00 85 1018.2
20191120051036 54 360 0.0 0.0 0.00 0.01 0.00 85 1018.2
20191120050928 54 360 0.0 0.0 0.00 0.01 0.00 85 1018.2
20191120050818 54 360 0.0 0.0 0.00 0.01 0.00 85 1018.2
20191120050732 54 360 0.0 0.0 0.00 0.01 0.00 85 1018.2
20191120050622 54 360 0.0 0.0 0.00 0.01 0.00 85 1018.3
20191120050421 54 360 0.0 0.0 0.00 0.01 0.00 86 1018.2
20191120050335 54 360 0.0 0.0 0.00 0.01 0.00 86 1018.2
20191120050218 54 360 0.0 0.0 0.00 0.01 0.00 86 1018.3
20191120050128 54 360 0.0 0.0 0.00 0.01 0.00 86 1018.2
20191120050020 54 360 0.0 0.0 0.00 0.01 0.00 86 1018.2
20191120045930 54 360 0.0 0.0 0.00 0.01 0.00 86 1018.1
20191120045820 54 360 0.0 0.0 0.00 0.01 0.00 86 1018.0
20191120045730 54 360 0.0 0.0 0.00 0.01 0.00 86 1018.0
20191120045624 54 360 0.0 0.0 0.00 0.01 0.00 86 1018.1
20191120045534 54 360 0.0 0.0 0.00 0.01 0.00 86 1018.0
20191120045424 54 360 0.0 0.0 0.00 0.01 0.00 86 1018.0
20191120045336 54 360 0.0 2.0 0.00 0.01 0.00 86 1018.0
20191120045226 54 360 0.0 2.0 0.00 0.01 0.00 86 1018.1
20191120045120 54 360 0.0 2.0 0.00 0.01 0.00 87 1018.0
20191120045031 54 360 0.0 2.0 0.00 0.01 0.00 87 1017.9
20191120044921 54 360 0.0 2.0 0.00 0.01 0.00 87 1017.9
20191120044834 54 360 0.0 3.0 0.00 0.01 0.00 87 1017.9
20191120044734 54 360 0.0 3.0 0.00 0.01 0.00 88 1018.0
20191120044624 54 360 0.0 3.0 0.00 0.01 0.00 88 1017.9
20191120044519 54 360 0.0 3.0 0.00 0.01 0.00 88 1018.0
20191120044429 54 15 0.0 3.0 0.00 0.01 0.00 89 1017.9
20191120044318 54 360 0.0 6.0 0.00 0.01 0.00 89 1018.0
20191120044228 54 360 0.0 8.0 0.00 0.01 0.00 90 1017.9
20191120044119 54 360 0.0 9.0 0.00 0.01 0.00 90 1017.9
20191120044030 54 360 1.0 9.0 0.00 0.01 0.00 90 1017.9
20191120043925 53 360 0.0 9.0 0.00 0.01 0.00 90 1017.9
20191120043835 53 360 0.0 9.0 0.00 0.01 0.00 91 1018.0
20191120043725 53 360 0.0 9.0 0.00 0.01 0.00 92 1018.0
20191120043635 53 360 0.0 9.0 0.00 0.01 0.00 92 1017.9
20191120043525 53 360 2.0 9.0 0.00 0.01 0.00 92 1017.9
20191120043435 53 360 3.0 9.0 0.00 0.01 0.00 92 1017.9
20191120043332 52 360 3.0 9.0 0.00 0.01 0.00 92 1017.9
20191120043230 52 360 1.0 5.0 0.00 0.01 0.00 92 1018.0
20191120043121 52 360 0.0 3.0 0.00 0.01 0.00 92 1017.9
20191120043031 52 360 0.0 3.0 0.00 0.01 0.00 92 1017.9
20191120042922 52 360 0.0 3.0 0.00 0.01 0.00 92 1018.0
20191120042836 52 360 0.0 3.0 0.00 0.01 0.00 92 1018.0
20191120042726 52 360 0.0 3.0 0.00 0.01 0.00 92 1018.0
20191120042636 52 360 0.0 3.0 0.00 0.01 0.00 92 1018.0
20191120042526 51 360 0.0 3.0 0.00 0.01 0.00 92 1018.1
20191120042436 51 360 0.0 0.0 0.00 0.01 0.00 92 1017.9
20191120042330 51 360 0.0 0.0 0.00 0.01 0.00 92 1018.1
20191120042220 51 360 0.0 0.0 0.00 0.01 0.00 92 1018.1
20191120042129 51 360 0.0 0.0 0.00 0.01 0.00 92 1018.1
20191120042019 51 360 0.0 0.0 0.00 0.01 0.00 91 1018.2
20191120041930 51 360 0.0 0.0 0.00 0.01 0.00 91 1018.2
20191120041829 51 360 0.0 0.0 0.00 0.01 0.00 91 1018.3
20191120041729 51 360 0.0 0.0 0.00 0.01 0.00 91 1018.3
20191120041620 51 360 0.0 0.0 0.00 0.01 0.00 91 1018.3
20191120041530 51 360 0.0 0.0 0.00 0.01 0.00 91 1018.3
20191120041420 51 360 0.0 0.0 0.00 0.01 0.00 91 1018.3
20191120041331 51 360 0.0 0.0 0.00 0.01 0.00 91 1018.3
20191120041225 51 360 0.0 0.0 0.00 0.01 0.00 91 1018.3
20191120041136 51 360 0.0 0.0 0.00 0.01 0.00 91 1018.3
20191120041026 51 360 0.0 0.0 0.00 0.01 0.00 91 1018.3
20191120040937 51 360 0.0 0.0 0.00 0.01 0.00 91 1018.2
20191120040827 51 360 0.0 0.0 0.00 0.01 0.00 91 1018.2
20191120040721 51 360 0.0 0.0 0.00 0.01 0.00 91 1018.2
20191120040631 51 360 0.0 0.0 0.00 0.01 0.00 91 1018.1
20191120040521 51 360 0.0 0.0 0.00 0.01 0.00 91 1018.1
20191120040432 51 360 0.0 0.0 0.00 0.01 0.00 91 1018.1
20191120040345 51 360 0.0 0.0 0.00 0.01 0.00 91 1018.2
20191120040227 51 360 0.0 0.0 0.00 0.01 0.00 91 1018.1
20191120040137 51 360 0.0 0.0 0.00 0.01 0.00 91 1018.2
20191120040028 51 360 0.0 0.0 0.00 0.01 0.00 91 1018.2
20191120035919 52 360 0.0 0.0 0.00 0.01 0.00 91 1018.2
20191120035830 51 360 0.0 0.0 0.00 0.01 0.00 91 1018.2
20191120035720 52 360 0.0 0.0 0.00 0.01 0.00 91 1018.2
20191120035633 52 360 0.0 0.0 0.00 0.01 0.00 91 1018.3
20191120035524 51 360 0.0 0.0 0.00 0.01 0.00 91 1018.3
20191120035435 52 360 0.0 0.0 0.00 0.01 0.00 91 1018.3
20191120035326 52 360 0.0 0.0 0.00 0.01 0.00 91 1018.4
20191120035236 52 360 0.0 0.0 0.00 0.01 0.00 91 1018.4
20191120035130 52 360 0.0 0.0 0.00 0.01 0.00 91 1018.5
20191120035019 52 360 0.0 0.0 0.00 0.01 0.00 90 1018.4
20191120034929 52 360 0.0 0.0 0.00 0.01 0.00 90 1018.4
20191120034842 52 360 0.0 0.0 0.00 0.01 0.00 90 1018.5
20191120034722 52 360 0.0 0.0 0.00 0.01 0.00 90 1018.5
20191120034632 52 360 0.0 0.0 0.00 0.01 0.00 90 1018.5
20191120034526 52 360 0.0 0.0 0.00 0.01 0.00 90 1018.4
20191120034437 52 360 0.0 0.0 0.00 0.01 0.00 90 1018.4
20191120034328 52 360 0.0 0.0 0.00 0.01 0.00 90 1018.5
20191120034219 52 360 0.0 0.0 0.00 0.01 0.00 90 1018.5
20191120034130 52 360 0.0 0.0 0.00 0.01 0.00 90 1018.5
20191120034024 52 360 0.0 0.0 0.00 0.01 0.00 90 1018.5
20191120033934 52 360 0.0 2.0 0.00 0.01 0.00 90 1018.5
20191120033825 52 360 0.0 2.0 0.00 0.01 0.00 90 1018.5
20191120033735 52 360 0.0 2.0 0.00 0.01 0.00 90 1018.5
20191120033626 52 360 0.0 2.0 0.00 0.01 0.00 89 1018.5
20191120033537 52 360 0.0 2.0 0.00 0.01 0.00 89 1018.5
20191120033431 52 360 0.0 2.0 0.00 0.01 0.00 89 1018.5
20191120033344 52 360 0.0 2.0 0.00 0.01 0.00 89 1018.5
20191120033223 52 360 0.0 2.0 0.00 0.01 0.00 89 1018.5
20191120033133 52 360 0.0 2.0 0.00 0.01 0.00 89 1018.5
20191120033025 52 10 0.0 1.0 0.00 0.01 0.00 89 1018.5
20191120032919 52 10 0.0 1.0 0.00 0.01 0.00 89 1018.5
20191120032829 52 11 0.0 0.0 0.00 0.01 0.00 89 1018.6
20191120032719 52 360 0.0 0.0 0.00 0.01 0.00 89 1018.5
20191120032630 52 360 0.0 0.0 0.00 0.01 0.00 89 1018.5
20191120032520 52 360 0.0 0.0 0.00 0.01 0.00 89 1018.5
20191120032435 52 360 0.0 0.0 0.00 0.01 0.00 89 1018.6
20191120032326 53 360 0.0 0.0 0.00 0.01 0.00 89 1018.5
20191120032236 53 360 0.0 0.0 0.00 0.01 0.00 92 1018.5
20191120032127 53 360 0.0 0.0 0.00 0.01 0.00 89 1018.5
20191120032018 53 360 0.0 0.0 0.00 0.01 0.00 89 1018.5
20191120031932 53 360 0.0 0.0 0.00 0.01 0.00 89 1018.5
20191120031845 53 360 0.0 0.0 0.00 0.01 0.00 89 1018.5
20191120031725 53 360 0.0 0.0 0.00 0.01 0.00 88 1018.5
20191120031636 53 360 0.0 0.0 0.00 0.01 0.00 88 1018.6
20191120031527 53 360 0.0 0.0 0.00 0.01 0.00 88 1018.6
20191120031421 53 360 0.0 0.0 0.00 0.01 0.00 88 1018.6
20191120031331 53 360 0.0 0.0 0.00 0.01 0.00 88 1018.7
20191120031221 53 360 0.0 0.0 0.00 0.01 0.00 88 1018.7
20191120031131 53 360 0.0 0.0 0.00 0.01 0.00 88 1018.7
20191120031021 53 360 0.0 0.0 0.00 0.01 0.00 88 1018.7
20191120030932 53 360 0.0 0.0 0.00 0.01 0.00 88 1018.7
20191120030827 53 360 0.0 0.0 0.00 0.01 0.00 88 1018.7
20191120030737 53 360 0.0 0.0 0.00 0.01 0.00 88 1018.8
20191120030627 53 360 0.0 0.0 0.00 0.01 0.00 88 1018.8
20191120030518 53 360 0.0 0.0 0.00 0.01 0.00 88 1018.9
20191120030428 53 360 0.0 0.0 0.00 0.01 0.00 88 1018.9
20191120030345 53 360 0.0 0.0 0.00 0.01 0.00 88 1018.9
20191120030224 53 360 0.0 0.0 0.00 0.01 0.00 87 1018.8
20191120030133 53 360 0.0 0.0 0.00 0.01 0.00 87 1018.9
20191120030023 53 360 0.0 0.0 0.00 0.01 0.00 87 1018.8
20191120025934 54 360 0.0 0.0 0.00 0.01 0.00 87 1018.8
20191120025828 54 360 0.0 0.0 0.00 0.01 0.00 87 1018.8
20191120025718 54 360 0.0 0.0 0.00 0.01 0.00 87 1018.8
20191120025628 54 360 0.0 0.0 0.00 0.01 0.00 86 1018.9
20191120025518 54 360 0.0 0.0 0.00 0.01 0.00 86 1018.8
20191120025429 54 360 0.0 4.0 0.00 0.01 0.00 86 1018.8
20191120025324 54 360 0.0 4.0 0.00 0.01 0.00 86 1018.8
20191120025233 54 360 0.0 4.0 0.00 0.01 0.00 85 1018.9
20191120025123 54 360 0.0 4.0 0.00 0.01 0.00 85 1018.9
20191120025034 54 360 0.0 4.0 0.00 0.01 0.00 85 1018.9
20191120024943 55 360 0.0 4.0 0.00 0.01 0.00 85 1018.9
20191120024836 55 360 0.0 4.0 0.00 0.01 0.00 85 1018.8
20191120024734 55 360 0.0 4.0 0.00 0.01 0.00 84 1018.8
20191120024627 55 9 1.0 4.0 0.00 0.01 0.00 84 1018.7
20191120024537 55 11 2.0 4.0 0.00 0.01 0.00 84 1018.6
20191120024428 56 13 1.0 3.0 0.00 0.01 0.00 85 1018.8
20191120024319 56 13 0.0 1.0 0.00 0.01 0.00 85 1018.8
20191120024229 56 360 0.0 1.0 0.00 0.01 0.00 85 1018.8
20191120024123 56 360 0.0 0.0 0.00 0.01 0.00 85 1018.8
20191120024034 56 360 0.0 0.0 0.00 0.01 0.00 85 1018.8
20191120023923 56 360 0.0 0.0 0.00 0.01 0.00 85 1018.8
20191120023834 56 360 0.0 0.0 0.00 0.01 0.00 85 1018.8
20191120023724 56 360 0.0 0.0 0.00 0.01 0.00 85 1018.8
20191120023634 56 360 0.0 0.0 0.00 0.01 0.00 85 1018.8
20191120023528 56 360 0.0 2.0 0.00 0.01 0.00 85 1018.8
20191120023418 56 360 0.0 2.0 0.00 0.01 0.00 85 1018.8
20191120023331 56 360 0.0 2.0 0.00 0.01 0.00 86 1018.8
20191120023230 56 360 0.0 2.0 0.00 0.01 0.00 86 1018.8
20191120023120 56 360 0.0 2.0 0.00 0.01 0.00 86 1018.8
20191120023034 56 360 0.0 5.0 0.00 0.01 0.00 86 1018.7
20191120022924 56 360 0.0 5.0 0.00 0.01 0.00 86 1018.9
20191120022835 56 360 0.0 5.0 0.00 0.01 0.00 86 1018.8
20191120022724 56 360 0.0 5.0 0.00 0.01 0.00 86 1018.8
20191120022633 56 360 0.0 5.0 0.00 0.01 0.00 87 1018.8
20191120022528 56 360 0.0 5.0 0.00 0.01 0.00 87 1018.8
20191120022419 56 360 0.0 5.0 0.00 0.01 0.00 87 1018.8
20191120022329 56 360 0.0 5.0 0.00 0.01 0.00 87 1018.9
20191120022220 56 360 2.0 5.0 0.00 0.01 0.00 87 1018.9
20191120022131 56 360 1.0 5.0 0.00 0.01 0.00 87 1018.9
20191120022025 56 360 0.0 0.0 0.00 0.01 0.00 87 1018.9
20191120021935 55 360 0.0 0.0 0.00 0.01 0.00 88 1018.9
20191120021848 55 360 0.0 0.0 0.00 0.01 0.00 88 1018.8
20191120021728 55 360 0.0 0.0 0.00 0.01 0.00 88 1018.9
20191120021618 55 360 0.0 0.0 0.00 0.01 0.00 88 1018.9
20191120021529 55 360 0.0 0.0 0.00 0.01 0.00 88 1018.8
20191120021423 55 360 0.0 0.0 0.00 0.01 0.00 88 1018.9
20191120021334 55 360 0.0 0.0 0.00 0.01 0.00 88 1018.9
20191120021224 55 360 0.0 0.0 0.00 0.01 0.00 88 1018.9
20191120021133 55 360 0.0 0.0 0.00 0.01 0.00 88 1018.9
20191120021023 55 360 0.0 0.0 0.00 0.01 0.00 88 1019.0
20191120020918 55 360 0.0 0.0 0.00 0.01 0.00 88 1019.0
20191120020828 55 360 0.0 0.0 0.00 0.01 0.00 88 1019.0
20191120020719 55 360 0.0 0.0 0.00 0.01 0.00 88 1019.1
20191120020518 55 360 0.0 0.0 0.00 0.01 0.00 88 1019.1
20191120020432 55 360 0.0 3.0 0.00 0.01 0.00 88 1019.2
20191120020345 55 360 0.0 3.0 0.00 0.01 0.00 88 1019.1
20191120020224 55 360 0.0 3.0 0.00 0.01 0.00 88 1019.1
20191120020135 55 360 0.0 3.0 0.00 0.01 0.00 88 1019.2
20191120020025 55 360 0.0 3.0 0.00 0.01 0.00 88 1019.2
20191120015935 55 360 0.0 3.0 0.00 0.01 0.00 88 1019.1
20191120015831 55 360 0.0 3.0 0.00 0.01 0.00 89 1019.2
20191120015721 55 360 0.0 3.0 0.00 0.01 0.00 89 1019.3
20191120015631 55 360 1.0 3.0 0.00 0.01 0.00 89 1019.3
20191120015521 55 360 0.0 0.0 0.00 0.01 0.00 89 1019.3
20191120015431 55 360 0.0 0.0 0.00 0.01 0.00 89 1019.3
20191120015326 55 360 0.0 0.0 0.00 0.01 0.00 89 1019.2
20191120015236 55 360 0.0 0.0 0.00 0.01 0.00 89 1019.3
20191120015127 54 360 0.0 0.0 0.00 0.01 0.00 89 1019.3
20191120015018 54 360 0.0 0.0 0.00 0.01 0.00 89 1019.3
20191120014948 54 360 0.0 0.0 0.00 0.01 0.00 89 1019.3
20191120014840 54 360 0.0 0.0 0.00 0.01 0.00 89 1019.3
20191120014724 54 360 0.0 0.0 0.00 0.01 0.00 89 1019.4
20191120014633 54 360 0.0 0.0 0.00 0.01 0.00 89 1019.4
20191120014524 54 360 0.0 0.0 0.00 0.01 0.00 89 1019.4
20191120014433 54 360 0.0 0.0 0.00 0.01 0.00 88 1019.5
20191120014324 54 360 0.0 0.0 0.00 0.01 0.00 88 1019.3
20191120014233 54 360 0.0 0.0 0.00 0.01 0.00 88 1019.5
20191120014127 54 360 0.0 0.0 0.00 0.01 0.00 88 1019.5
20191120014019 54 360 0.0 0.0 0.00 0.01 0.00 88 1019.5
20191120013929 54 360 0.0 0.0 0.00 0.01 0.00 88 1019.5
20191120013820 54 360 0.0 0.0 0.00 0.01 0.00 88 1019.5
20191120013729 54 360 0.0 0.0 0.00 0.01 0.00 88 1019.6
20191120013620 54 360 0.0 0.0 0.00 0.01 0.00 88 1019.5
20191120013533 54 360 0.0 0.0 0.00 0.01 0.00 88 1019.6
20191120013423 54 360 0.0 0.0 0.00 0.01 0.00 88 1019.6
20191120013338 54 360 0.0 0.0 0.00 0.01 0.00 88 1019.6
20191120013236 54 360 0.0 0.0 0.00 0.01 0.00 88 1019.6
20191120013126 54 360 0.0 0.0 0.00 0.01 0.00 88 1019.5
20191120013020 54 360 0.0 0.0 0.00 0.01 0.00 88 1019.6
20191120012931 54 360 0.0 0.0 0.00 0.01 0.00 88 1019.6
20191120012821 54 360 0.0 0.0 0.00 0.01 0.00 88 1019.6
20191120012731 55 360 0.0 0.0 0.00 0.01 0.00 88 1019.6
20191120012623 55 360 0.0 0.0 0.00 0.01 0.00 88 1019.5
20191120012536 55 360 0.0 0.0 0.00 0.01 0.00 88 1019.5
20191120012427 55 360 0.0 0.0 0.00 0.01 0.00 88 1019.5
20191120012336 55 360 0.0 0.0 0.00 0.01 0.00 88 1019.6
20191120012227 55 360 0.0 0.0 0.00 0.01 0.00 88 1019.6
20191120012136 55 360 0.0 0.0 0.00 0.01 0.00 88 1019.5
20191120012030 55 360 0.0 0.0 0.00 0.01 0.00 88 1019.5
20191120011921 55 360 0.0 0.0 0.00 0.01 0.00 87 1019.5
20191120011834 55 360 0.0 0.0 0.00 0.01 0.00 87 1019.5
20191120011734 55 360 0.0 0.0 0.00 0.01 0.00 87 1019.6
20191120011624 55 360 0.0 0.0 0.00 0.01 0.00 87 1019.6
20191120011533 55 360 0.0 0.0 0.00 0.01 0.00 87 1019.6
20191120011428 55 360 0.0 0.0 0.00 0.01 0.00 87 1019.6
20191120011319 55 360 0.0 0.0 0.00 0.01 0.00 87 1019.6
20191120011230 55 360 0.0 0.0 0.00 0.01 0.00 87 1019.6
20191120011120 55 360 0.0 0.0 0.00 0.01 0.00 87 1019.6
20191120011031 55 360 0.0 0.0 0.00 0.01 0.00 87 1019.6
20191120010924 55 360 0.0 0.0 0.00 0.01 0.00 87 1019.6
20191120010833 55 360 0.0 0.0 0.00 0.01 0.00 87 1019.6
20191120010723 55 360 0.0 0.0 0.00 0.01 0.00 87 1019.6
20191120010634 55 360 0.0 0.0 0.00 0.01 0.00 87 1019.6
20191120010524 55 360 0.0 0.0 0.00 0.01 0.00 87 1019.5
20191120010418 55 360 0.0 0.0 0.00 0.01 0.00 87 1019.6
20191120010331 55 360 0.0 0.0 0.00 0.01 0.00 87 1019.6
20191120010231 55 360 0.0 0.0 0.00 0.01 0.00 87 1019.5
20191120010121 55 360 0.0 0.0 0.00 0.01 0.00 87 1019.5
20191120010032 55 360 0.0 0.0 0.00 0.01 0.00 87 1019.5
20191120005922 55 360 0.0 0.0 0.00 0.01 0.00 87 1019.5
20191120005836 55 360 0.0 0.0 0.00 0.01 0.00 87 1019.5
20191120005726 55 360 0.0 0.0 0.00 0.01 0.00 87 1019.5
20191120005617 55 360 0.0 0.0 0.00 0.01 0.00 87 1019.5
20191120005529 55 360 0.0 0.0 0.00 0.01 0.00 87 1019.5
20191120005420 55 360 0.0 0.0 0.00 0.01 0.00 87 1019.5
20191120005333 55 360 0.0 3.0 0.00 0.01 0.00 87 1019.5
20191120005224 55 360 0.0 6.0 0.00 0.01 0.00 87 1019.5
20191120005133 55 360 0.0 6.0 0.00 0.01 0.00 87 1019.5
20191120005044 55 360 0.0 6.0 0.00 0.01 0.00 88 1019.5
20191120004933 55 360 0.0 6.0 0.00 0.01 0.00 88 1019.5
20191120004906 55 360 0.0 6.0 0.00 0.01 0.00 88 1019.6
20191120004729 55 360 0.0 6.0 0.00 0.01 0.00 88 1019.5
20191120004619 55 360 0.0 6.0 0.00 0.01 0.00 88 1019.6
20191120004529 55 360 0.0 6.0 0.00 0.01 0.00 88 1019.6
20191120004419 55 360 3.0 6.0 0.00 0.01 0.00 88 1019.6
20191120004330 55 360 1.0 6.0 0.00 0.01 0.00 88 1019.6
20191120004220 55 360 1.0 4.0 0.00 0.01 0.00 88 1019.7
20191120004134 55 360 1.0 4.0 0.00 0.01 0.00 89 1019.7
20191120004024 55 360 0.0 0.0 0.00 0.01 0.00 89 1019.7
20191120003934 55 360 0.0 0.0 0.00 0.01 0.00 89 1019.7
20191120003824 55 360 0.0 0.0 0.00 0.01 0.00 89 1019.7
20191120003734 55 360 0.0 0.0 0.00 0.01 0.00 89 1019.7
20191120003628 55 360 0.0 0.0 0.00 0.01 0.00 89 1019.8
20191120003518 54 360 0.0 0.0 0.00 0.01 0.00 89 1019.7
20191120003428 54 360 0.0 0.0 0.00 0.01 0.00 89 1019.7
20191120003341 54 360 0.0 0.0 0.00 0.01 0.00 89 1019.7
20191120003219 54 360 0.0 0.0 0.00 0.01 0.00 89 1019.7
20191120003129 54 360 0.0 0.0 0.00 0.01 0.00 88 1019.8
20191120003023 54 360 0.0 0.0 0.00 0.01 0.00 88 1019.7
20191120002934 54 360 0.0 0.0 0.00 0.01 0.00 88 1019.7
20191120002825 54 360 0.0 0.0 0.00 0.01 0.00 88 1019.8
20191120002736 54 360 0.0 0.0 0.00 0.01 0.00 88 1019.8
20191120002627 54 360 0.0 0.0 0.00 0.01 0.00 88 1019.8
20191120002522 54 360 0.0 0.0 0.00 0.01 0.00 88 1019.8
20191120002432 54 360 0.0 0.0 0.00 0.01 0.00 88 1019.7
20191120002323 54 360 0.0 0.0 0.00 0.01 0.00 88 1019.7
20191120002234 54 360 0.0 0.0 0.00 0.01 0.00 88 1019.8
20191120002124 54 360 0.0 1.0 0.00 0.01 0.00 88 1019.8
20191120002018 54 360 0.0 1.0 0.00 0.01 0.00 88 1019.8
20191120001929 54 360 0.0 1.0 0.00 0.01 0.00 88 1019.8
20191120001845 54 360 0.0 1.0 0.00 0.01 0.00 88 1019.8
20191120001723 54 360 0.0 1.0 0.00 0.01 0.00 88 1019.8
20191120001634 54 360 0.0 1.0 0.00 0.01 0.00 88 1019.8
20191120001528 54 360 0.0 1.0 0.00 0.01 0.00 88 1019.8
20191120001418 54 360 0.0 1.0 0.00 0.01 0.00 88 1019.7
20191120001330 54 360 0.0 1.0 0.00 0.01 0.00 88 1019.7
20191120001221 54 360 0.0 1.0 0.00 0.01 0.00 88 1019.8
20191120001131 54 360 0.0 1.0 0.00 0.01 0.00 88 1019.8
20191120001027 54 10 0.0 1.0 0.00 0.01 0.00 88 1019.7
20191120000937 54 360 0.0 1.0 0.00 0.01 0.00 88 1019.7
20191120000827 55 360 0.0 1.0 0.00 0.01 0.00 87 1019.8
20191120000718 55 360 0.0 1.0 0.00 0.01 0.00 87 1019.8
20191120000629 55 360 0.0 1.0 0.00 0.01 0.00 87 1019.8
20191120000523 55 17 0.0 3.0 0.00 0.01 0.00 87 1019.7
20191120000434 55 16 0.0 3.0 0.00 0.01 0.00 87 1019.7
20191120000348 55 14 0.0 3.0 0.00 0.01 0.00 87 1019.7
20191120000228 55 360 0.0 3.0 0.00 0.01 0.00 87 1019.7
20191120000119 55 360 0.0 3.0 0.00 0.01 0.00 87 1019.7
20191120000029 55 9 0.0 3.0 0.00 0.01 0.00 87 1019.8
20191119235923 55 9 0.0 3.0 0.00 0.01 0.00 87 1019.7
20191119235833 55 10 0.0 3.0 0.00 0.01 0.00 86 1019.7
20191119235724 55 17 1.0 3.0 0.00 0.01 0.00 86 1019.6
20191119235635 55 360 1.0 3.0 0.00 0.01 0.00 86 1019.6
20191119235526 55 360 0.0 1.0 0.00 0.01 0.00 86 1019.6
20191119235420 55 360 0.0 1.0 0.00 0.01 0.00 86 1019.6
20191119235330 55 360 0.0 1.0 0.00 0.01 0.00 86 1019.7
20191119235220 55 360 0.0 1.0 0.00 0.01 0.00 86 1019.7
20191119235130 55 360 0.0 1.0 0.00 0.01 0.00 86 1019.7
20191119235021 55 360 0.0 2.0 0.00 0.01 0.00 86 1019.6
20191119234931 55 360 0.0 2.0 0.00 0.01 0.00 86 1019.7
20191119234746 55 360 0.0 2.0 0.00 0.01 0.00 86 1019.6
20191119234635 55 360 0.0 2.0 0.00 0.01 0.00 86 1019.6
20191119234525 55 360 0.0 2.0 0.00 0.01 0.00 86 1019.7
20191119234433 55 17 0.0 2.0 0.00 0.01 0.00 86 1019.6
20191119234323 55 14 0.0 2.0 0.00 0.01 0.00 86 1019.7
20191119234237 55 360 0.0 2.0 0.00 0.01 0.00 86 1019.6
20191119234128 56 360 0.0 2.0 0.00 0.01 0.00 86 1019.7
20191119234018 56 360 0.0 0.0 0.00 0.01 0.00 86 1019.6
20191119233929 56 360 0.0 0.0 0.00 0.01 0.00 86 1019.6
20191119233821 56 9 0.0 0.0 0.00 0.01 0.00 86 1019.7
20191119233730 56 360 0.0 0.0 0.00 0.01 0.00 86 1019.7
20191119233625 56 360 0.0 4.0 0.00 0.01 0.00 86 1019.7
20191119233536 56 360 0.0 4.0 0.00 0.01 0.00 86 1019.7
20191119233426 56 360 0.0 4.0 0.00 0.01 0.00 86 1019.7
20191119233340 56 360 0.0 4.0 0.00 0.01 0.00 87 1019.7
20191119233220 56 360 0.0 4.0 0.00 0.01 0.00 87 1019.7
20191119233135 56 360 0.0 4.0 0.00 0.01 0.00 87 1019.8
20191119233024 56 360 0.0 5.0 0.00 0.01 0.00 87 1019.8
20191119232933 56 360 0.0 5.0 0.00 0.01 0.00 87 1019.7
20191119232823 56 360 1.0 5.0 0.00 0.01 0.00 87 1019.8
20191119232734 56 360 1.0 5.0 0.00 0.01 0.00 87 1019.7
20191119232628 56 360 0.0 5.0 0.00 0.01 0.00 87 1019.7
20191119232518 56 360 0.0 5.0 0.00 0.01 0.00 87 1019.7
20191119232429 56 360 0.0 5.0 0.00 0.01 0.00 87 1019.7
20191119232320 56 360 0.0 5.0 0.00 0.01 0.00 87 1019.7
20191119232231 56 360 1.0 6.0 0.00 0.01 0.00 87 1019.7
20191119232125 56 360 1.0 6.0 0.00 0.01 0.00 87 1019.8
20191119232035 56 360 1.0 6.0 0.00 0.01 0.00 87 1019.8
20191119231926 56 360 0.0 6.0 0.00 0.01 0.00 88 1019.8
20191119231840 55 360 0.0 6.0 0.00 0.01 0.00 88 1019.8
20191119231720 55 360 0.0 6.0 0.00 0.01 0.00 88 1019.8
20191119231633 55 360 1.0 6.0 0.00 0.01 0.00 88 1019.9
20191119231523 55 360 0.0 6.0 0.00 0.01 0.00 89 1019.8
20191119231434 55 360 2.0 6.0 0.00 0.01 0.00 89 1019.8
20191119231325 55 360 1.0 6.0 0.00 0.01 0.00 89 1019.8
20191119231235 55 360 1.0 6.0 0.00 0.01 0.00 89 1019.8
20191119231129 55 360 0.0 6.0 0.00 0.01 0.00 89 1019.8
20191119231019 55 360 0.0 6.0 0.00 0.01 0.00 90 1019.9
20191119230929 55 360 2.0 6.0 0.00 0.01 0.00 90 1019.8
20191119230818 55 360 1.0 5.0 0.00 0.01 0.00 90 1019.8
20191119230728 55 360 1.0 5.0 0.00 0.01 0.00 90 1019.9
20191119230623 55 360 0.0 5.0 0.00 0.01 0.00 91 1019.9
20191119230534 55 360 0.0 11.0 0.00 0.01 0.00 91 1020.0
20191119230424 55 360 0.0 11.0 0.00 0.01 0.00 91 1020.0
20191119230338 54 360 2.0 11.0 0.00 0.01 0.00 91 1020.1
20191119230237 54 360 4.0 11.0 0.00 0.01 0.00 92 1020.1
20191119230128 54 360 3.0 11.0 0.00 0.01 0.00 92 1020.1
20191119230021 54 360 0.0 11.0 0.00 0.01 0.00 92 1020.1
20191119225931 54 360 0.0 11.0 0.00 0.01 0.00 92 1020.0
20191119225821 54 360 0.0 11.0 0.00 0.01 0.00 92 1020.0
20191119225731 54 360 2.0 11.0 0.00 0.01 0.00 92 1020.0
20191119225622 53 360 1.0 11.0 0.00 0.01 0.00 92 1020.0
20191119225536 53 360 0.0 5.0 0.00 0.01 0.00 92 1020.0
20191119225426 53 360 0.0 5.0 0.00 0.01 0.00 92 1020.0
20191119225318 53 360 0.0 5.0 0.00 0.01 0.00 92 1020.0
20191119225228 53 360 1.0 5.0 0.00 0.01 0.00 92 1020.0
20191119225120 53 360 0.0 5.0 0.00 0.01 0.00 92 1020.1
20191119225031 53 360 0.0 0.0 0.00 0.01 0.00 92 1019.9
20191119224924 53 360 0.0 0.0 0.00 0.01 0.00 92 1020.0
20191119224837 53 360 0.0 0.0 0.00 0.01 0.00 92 1020.0
20191119224737 53 360 0.0 0.0 0.00 0.01 0.00 91 1020.0
20191119224646 53 360 0.0 0.0 0.00 0.01 0.00 91 1020.1
20191119224535 53 360 0.0 0.0 0.00 0.01 0.00 91 1020.1
20191119224426 52 360 0.0 0.0 0.00 0.01 0.00 91 1020.0
20191119224320 52 360 0.0 0.0 0.00 0.01 0.00 91 1020.1
20191119224230 52 360 0.0 0.0 0.00 0.01 0.00 91 1020.1
20191119224120 52 360 0.0 3.0 0.00 0.01 0.00 91 1020.1
20191119224030 52 360 0.0 3.0 0.00 0.01 0.00 91 1020.1
20191119223920 52 360 0.0 3.0 0.00 0.01 0.00 91 1020.1
20191119223829 52 360 0.0 3.0 0.00 0.01 0.00 91 1020.2
20191119223722 52 360 0.0 3.0 0.00 0.01 0.00 91 1020.1
20191119223632 52 360 0.0 3.0 0.00 0.01 0.00 91 1020.1
20191119223522 52 360 0.0 3.0 0.00 0.01 0.00 91 1020.2
20191119223432 52 360 0.0 3.0 0.00 0.01 0.00 90 1020.1
20191119223344 52 360 0.0 3.0 0.00 0.01 0.00 90 1020.2
20191119223227 52 360 0.0 3.0 0.00 0.01 0.00 90 1020.1
20191119223137 52 360 0.0 0.0 0.00 0.01 0.00 90 1020.1
20191119223028 52 360 0.0 0.0 0.00 0.01 0.00 90 1020.2
20191119222919 52 360 0.0 0.0 0.00 0.01 0.00 90 1020.2
20191119222829 52 360 0.0 0.0 0.00 0.01 0.00 91 1020.2
20191119222724 52 360 0.0 0.0 0.00 0.01 0.00 91 1020.1
20191119222634 52 360 0.0 0.0 0.00 0.01 0.00 91 1020.1
20191119222524 52 360 0.0 0.0 0.00 0.01 0.00 91 1020.1
20191119222433 52 360 0.0 0.0 0.00 0.01 0.00 91 1020.1
20191119222324 52 360 0.0 0.0 0.00 0.01 0.00 91 1020.1
20191119222219 52 360 0.0 0.0 0.00 0.01 0.00 91 1020.1
20191119222129 52 360 0.0 0.0 0.00 0.01 0.00 90 1020.1
20191119222020 52 360 0.0 0.0 0.00 0.01 0.00 90 1020.0
20191119221931 52 360 0.0 0.0 0.00 0.01 0.00 90 1020.0
20191119221845 52 360 0.0 0.0 0.00 0.01 0.00 90 1020.0
20191119221724 52 360 0.0 0.0 0.00 0.01 0.00 90 1020.1
20191119221619 52 360 0.0 0.0 0.00 0.01 0.00 90 1020.1
20191119221531 52 360 0.0 0.0 0.00 0.01 0.00 90 1020.2
20191119221420 52 360 0.0 0.0 0.00 0.01 0.00 90 1020.2
20191119221331 52 360 0.0 0.0 0.00 0.01 0.00 90 1020.1
20191119221222 52 360 0.0 0.0 0.00 0.01 0.00 90 1020.1
20191119221136 52 360 0.0 0.0 0.00 0.01 0.00 90 1020.0
20191119221026 52 360 0.0 0.0 0.00 0.01 0.00 90 1020.2
20191119220918 52 360 0.0 0.0 0.00 0.01 0.00 90 1020.2
20191119220828 52 360 0.0 0.0 0.00 0.01 0.00 90 1020.3
20191119220718 52 360 0.0 0.0 0.00 0.01 0.00 90 1020.2
20191119220632 52 360 0.0 0.0 0.00 0.01 0.00 90 1020.2
20191119220522 52 360 0.0 0.0 0.00 0.01 0.00 90 1020.3
20191119220432 53 360 0.0 0.0 0.00 0.01 0.00 89 1020.3
20191119220345 53 360 0.0 0.0 0.00 0.01 0.00 89 1020.2
20191119220224 53 360 0.0 0.0 0.00 0.01 0.00 89 1020.3
20191119220134 53 360 0.0 0.0 0.00 0.01 0.00 89 1020.3
20191119220028 53 360 0.0 0.0 0.00 0.01 0.01 89 1020.3
20191119215936 53 360 0.0 0.0 0.00 0.01 0.01 89 1020.4
20191119215828 53 360 0.0 0.0 0.00 0.01 0.01 89 1020.3
20191119215719 53 360 0.0 0.0 0.00 0.01 0.01 89 1020.3
20191119215629 53 360 0.0 0.0 0.00 0.01 0.01 89 1020.4
20191119215523 53 360 0.0 0.0 0.00 0.01 0.01 89 1020.4
20191119215433 53 360 0.0 0.0 0.00 0.01 0.01 89 1020.4
20191119215324 53 360 0.0 0.0 0.00 0.01 0.01 89 1020.4
20191119215234 53 360 0.0 0.0 0.00 0.01 0.01 89 1020.3
20191119215144 53 360 0.0 0.0 0.00 0.01 0.01 89 1020.3
20191119215034 53 360 0.0 0.0 0.00 0.01 0.01 89 1020.4
20191119214944 53 360 0.0 0.0 0.00 0.01 0.01 89 1020.4
20191119214843 53 360 0.0 0.0 0.00 0.01 0.01 89 1020.5
20191119214721 53 360 0.0 0.0 0.00 0.01 0.01 89 1020.6
20191119214631 53 360 0.0 0.0 0.00 0.01 0.01 89 1020.6
20191119214521 53 360 0.0 0.0 0.00 0.01 0.01 90 1020.6
20191119214432 53 360 0.0 0.0 0.00 0.01 0.01 90 1020.7
20191119214326 53 360 0.0 0.0 0.00 0.01 0.01 90 1020.7
20191119214236 53 360 0.0 0.0 0.00 0.01 0.01 90 1020.6
20191119214125 53 360 0.0 0.0 0.00 0.01 0.01 90 1020.6
20191119214035 53 360 0.0 0.0 0.00 0.01 0.01 90 1020.6
20191119213925 53 360 0.0 0.0 0.00 0.01 0.01 89 1020.7
20191119213820 53 360 0.0 0.0 0.00 0.01 0.01 89 1020.6
20191119213732 53 360 0.0 0.0 0.00 0.01 0.01 89 1020.6
20191119213623 53 360 0.0 0.0 0.00 0.01 0.01 90 1020.6
20191119213533 53 360 0.0 0.0 0.00 0.01 0.01 90 1020.6
20191119213424 53 360 0.0 0.0 0.00 0.01 0.01 89 1020.5
20191119213337 53 360 0.0 0.0 0.00 0.01 0.01 89 1020.7
20191119213220 53 360 0.0 0.0 0.00 0.01 0.01 89 1020.5
20191119213131 53 360 0.0 0.0 0.00 0.01 0.01 89 1020.5
20191119213020 53 360 0.0 0.0 0.00 0.01 0.01 89 1020.6
20191119212930 53 360 0.0 0.0 0.00 0.01 0.01 89 1020.5
20191119212821 53 360 0.0 0.0 0.00 0.01 0.01 89 1020.6
20191119212735 53 360 0.0 0.0 0.00 0.01 0.01 89 1020.6
20191119212625 53 360 0.0 0.0 0.00 0.01 0.01 90 1020.7
20191119212535 53 360 0.0 0.0 0.00 0.01 0.01 90 1020.7
20191119212425 53 360 0.0 0.0 0.00 0.01 0.01 89 1020.7
20191119212336 53 360 0.0 0.0 0.00 0.01 0.01 89 1020.7
20191119212230 53 360 0.0 0.0 0.00 0.01 0.01 89 1020.7
20191119212120 53 360 0.0 0.0 0.00 0.01 0.01 89 1020.8
20191119212030 53 360 0.0 0.0 0.00 0.01 0.01 89 1020.7
20191119211919 53 360 0.0 0.0 0.00 0.01 0.01 89 1020.8
20191119211833 53 360 0.0 0.0 0.00 0.01 0.01 89 1020.9
20191119211732 53 360 0.0 0.0 0.00 0.01 0.01 89 1020.9
20191119211626 53 360 0.0 0.0 0.00 0.01 0.01 89 1020.9
20191119211535 53 360 0.0 0.0 0.00 0.01 0.01 89 1020.9
20191119211426 53 360 0.0 0.0 0.00 0.01 0.01 89 1020.9
20191119211336 53 360 0.0 0.0 0.00 0.01 0.01 89 1021.0
20191119211119 53 360 0.0 0.0 0.00 0.01 0.01 89 1020.9
20191119211030 53 360 0.0 0.0 0.00 0.01 0.01 88 1020.9
20191119210920 53 360 0.0 0.0 0.00 0.01 0.01 88 1020.9
20191119210830 53 360 0.0 0.0 0.00 0.01 0.01 88 1020.9
20191119210720 53 360 0.0 0.0 0.00 0.01 0.01 88 1020.8
20191119210635 53 360 0.0 0.0 0.00 0.01 0.01 88 1020.8
20191119210525 53 360 0.0 0.0 0.00 0.01 0.01 87 1020.7
20191119210409 53 360 0.0 0.0 0.00 0.01 0.01 87 1020.8
20191119210308 54 360 0.0 0.0 0.00 0.01 0.01 87 1021.1
20191119210133 54 360 0.0 0.0 0.00 0.01 0.01 87 1020.9
20191119210028 54 360 0.0 0.0 0.00 0.01 0.01 87 1020.9
20191119205918 54 360 0.0 0.0 0.00 0.01 0.01 87 1020.9
20191119205828 54 360 0.0 0.0 0.00 0.01 0.01 87 1020.8
20191119205718 54 360 0.0 0.0 0.00 0.01 0.01 87 1020.9
20191119205628 54 360 0.0 0.0 0.00 0.01 0.01 88 1021.0
20191119205519 54 360 0.0 0.0 0.00 0.01 0.01 88 1020.9
20191119205433 54 360 0.0 0.0 0.00 0.01 0.01 88 1020.9
20191119205325 54 360 0.0 0.0 0.00 0.01 0.01 88 1020.9
20191119205235 54 360 0.0 0.0 0.00 0.01 0.01 88 1020.9
20191119205033 54 360 0.0 0.0 0.00 0.01 0.01 88 1021.0
20191119204923 54 360 0.0 0.0 0.00 0.01 0.01 88 1021.0
20191119204718 54 360 0.0 0.0 0.00 0.01 0.01 88 1021.0
20191119204629 54 360 0.0 0.0 0.00 0.01 0.01 88 1021.0
20191119204519 54 360 0.0 0.0 0.00 0.01 0.01 88 1021.1
20191119204430 54 360 0.0 0.0 0.00 0.01 0.01 88 1021.1
20191119204320 54 360 0.0 0.0 0.00 0.01 0.01 87 1021.0
20191119204233 54 360 0.0 0.0 0.00 0.01 0.01 87 1021.1
20191119204123 54 360 0.0 0.0 0.00 0.01 0.01 87 1021.0
20191119204034 55 360 0.0 0.0 0.00 0.01 0.01 87 1021.0
20191119203924 55 360 0.0 0.0 0.00 0.01 0.01 87 1020.9
20191119203833 55 360 0.0 0.0 0.00 0.01 0.01 87 1021.0
20191119203728 55 360 0.0 0.0 0.00 0.01 0.01 87 1021.0
20191119203618 55 360 0.0 0.0 0.00 0.01 0.01 87 1021.0
20191119203529 55 360 0.0 0.0 0.00 0.01 0.01 87 1020.9
20191119203419 55 360 0.0 0.0 0.00 0.01 0.01 87 1021.0
20191119203334 55 360 0.0 0.0 0.00 0.01 0.01 87 1021.0
20191119203233 55 360 0.0 0.0 0.00 0.01 0.01 87 1021.0
20191119203128 55 360 0.0 0.0 0.00 0.01 0.01 87 1020.9
20191119203018 55 360 0.0 0.0 0.00 0.01 0.01 87 1021.0
20191119202929 55 360 0.0 0.0 0.00 0.01 0.01 86 1020.9
20191119202819 55 360 0.0 0.0 0.00 0.01 0.01 86 1021.0
20191119202729 55 360 0.0 0.0 0.00 0.01 0.01 86 1021.0
20191119202624 55 360 0.0 0.0 0.00 0.01 0.01 87 1021.0
20191119202534 55 360 0.0 0.0 0.00 0.01 0.01 87 1021.0
20191119202424 55 360 0.0 0.0 0.00 0.01 0.01 87 1021.0
20191119202335 55 360 0.0 0.0 0.00 0.01 0.01 86 1021.0
20191119202225 55 360 0.0 0.0 0.00 0.01 0.01 87 1021.0
20191119202120 55 360 0.0 0.0 0.00 0.01 0.01 87 1021.0
20191119202032 55 360 0.0 0.0 0.00 0.01 0.01 87 1021.1
20191119201923 55 360 0.0 0.0 0.00 0.01 0.01 87 1021.0
20191119201837 55 360 0.0 0.0 0.00 0.01 0.01 87 1021.0
20191119201736 56 360 0.0 0.0 0.00 0.01 0.01 87 1021.1
20191119201630 56 360 0.0 0.0 0.00 0.01 0.01 87 1021.0
20191119201520 56 360 0.0 0.0 0.00 0.01 0.01 87 1021.0
20191119201430 56 360 0.0 1.0 0.00 0.01 0.01 87 1021.0
20191119201322 56 360 0.0 1.0 0.00 0.01 0.01 87 1021.0
20191119201232 56 360 0.0 1.0 0.00 0.01 0.01 87 1021.0
20191119201126 56 360 0.0 1.0 0.00 0.01 0.01 87 1021.0
20191119201018 56 360 0.0 3.0 0.00 0.01 0.01 87 1021.0
20191119200928 56 360 0.0 3.0 0.00 0.01 0.01 87 1021.1
20191119200819 55 360 0.0 3.0 0.00 0.01 0.01 87 1021.1
20191119200730 56 360 0.0 3.0 0.00 0.01 0.01 87 1021.1
20191119200626 55 360 0.0 3.0 0.00 0.01 0.01 87 1021.1
20191119200535 56 360 0.0 3.0 0.00 0.01 0.01 87 1021.0
20191119200425 56 360 0.0 3.0 0.00 0.01 0.01 87 1021.1
20191119200339 56 360 0.0 6.0 0.00 0.01 0.01 87 1021.1
20191119200219 56 360 1.0 6.0 0.00 0.01 0.01 87 1021.1
20191119200133 56 360 0.0 6.0 0.00 0.01 0.01 87 1021.1
20191119200024 56 360 0.0 6.0 0.00 0.01 0.01 87 1021.1
20191119195934 56 360 0.0 6.0 0.00 0.01 0.01 87 1021.2
20191119195826 56 360 0.0 6.0 0.00 0.01 0.01 87 1021.1
20191119195736 56 360 0.0 6.0 0.00 0.01 0.01 88 1021.1
20191119195626 56 360 0.0 6.0 0.00 0.01 0.01 88 1021.1
20191119195520 56 360 3.0 6.0 0.00 0.01 0.01 88 1021.1
20191119195430 56 360 1.0 6.0 0.00 0.01 0.01 88 1021.2
20191119195320 56 360 0.0 6.0 0.00 0.01 0.01 88 1021.1
20191119195231 56 360 0.0 6.0 0.00 0.01 0.01 88 1021.1
20191119195121 55 360 2.0 6.0 0.00 0.01 0.01 89 1021.1
20191119195035 55 360 3.0 6.0 0.00 0.01 0.01 89 1021.1
20191119194926 55 360 1.0 7.0 0.00 0.01 0.01 89 1021.1
20191119194839 55 360 0.0 7.0 0.00 0.01 0.01 89 1021.1
20191119194718 55 360 3.0 7.0 0.00 0.01 0.01 89 1021.1
20191119194628 55 360 0.0 7.0 0.00 0.01 0.01 89 1021.1
20191119194518 55 360 0.0 7.0 0.00 0.01 0.01 89 1021.1
20191119194428 55 360 0.0 7.0 0.00 0.01 0.01 89 1021.1
20191119194323 55 360 0.0 7.0 0.00 0.01 0.01 90 1021.2
20191119194233 55 360 0.0 7.0 0.00 0.01 0.01 90 1021.2
20191119194124 55 360 2.0 7.0 0.00 0.01 0.01 90 1021.2
20191119194035 55 360 0.0 7.0 0.00 0.01 0.01 90 1021.2
20191119193926 55 360 2.0 7.0 0.00 0.01 0.01 91 1021.3
20191119193819 55 360 1.0 7.0 0.00 0.01 0.01 91 1021.2
20191119193731 55 360 1.0 8.0 0.00 0.01 0.01 91 1021.2
20191119193622 55 360 1.0 8.0 0.00 0.01 0.01 91 1021.2
20191119193532 55 360 2.0 8.0 0.00 0.01 0.01 92 1021.2
20191119193422 54 360 3.0 8.0 0.00 0.01 0.01 92 1021.3
20191119193339 54 360 2.0 8.0 0.00 0.01 0.01 92 1021.3
20191119193125 54 360 3.0 8.0 0.00 0.01 0.01 93 1021.2
20191119193035 54 360 3.0 8.0 0.00 0.01 0.01 94 1021.2
20191119192925 54 360 4.0 8.0 0.00 0.01 0.01 94 1021.2
20191119192821 54 360 1.0 8.0 0.00 0.01 0.01 94 1021.2
20191119192731 54 360 2.0 7.0 0.00 0.01 0.01 94 1021.2
20191119192622 54 360 4.0 7.0 0.00 0.01 0.01 94 1021.1
20191119192532 54 360 3.0 7.0 0.00 0.01 0.01 95 1021.2
20191119192422 54 360 2.0 6.0 0.00 0.01 0.01 95 1021.1
20191119192333 53 360 1.0 6.0 0.00 0.01 0.01 95 1021.2
20191119192227 53 360 3.0 6.0 0.00 0.01 0.01 95 1021.2
20191119192137 53 360 3.0 6.0 0.00 0.01 0.01 95 1021.1
20191119192027 53 360 3.0 6.0 0.00 0.01 0.01 95 1021.2
20191119191937 53 360 2.0 6.0 0.00 0.01 0.01 96 1021.2
20191119191831 53 360 2.0 6.0 0.00 0.01 0.01 95 1021.2
20191119191733 53 360 0.0 6.0 0.00 0.01 0.01 95 1021.2
20191119191623 52 360 0.0 6.0 0.00 0.01 0.01 95 1021.2
20191119191533 52 360 0.0 6.0 0.00 0.01 0.01 96 1021.3
20191119191423 52 360 1.0 6.0 0.00 0.01 0.01 95 1021.3
20191119191333 52 360 0.0 6.0 0.00 0.01 0.01 95 1021.2
20191119191227 52 360 1.0 6.0 0.00 0.01 0.01 95 1021.2
20191119191137 51 360 2.0 6.0 0.00 0.01 0.01 95 1021.3
20191119191027 51 360 2.0 6.0 0.00 0.01 0.01 95 1021.3
20191119190919 51 360 0.0 6.0 0.00 0.01 0.01 95 1021.3
20191119190829 51 360 1.0 6.0 0.00 0.01 0.01 95 1021.3
20191119190723 50 360 2.0 6.0 0.00 0.01 0.01 95 1021.3
20191119190633 50 360 2.0 6.0 0.00 0.01 0.01 95 1021.3
20191119190524 50 360 0.0 4.0 0.00 0.01 0.01 95 1021.3
20191119190434 50 360 0.0 4.0 0.00 0.01 0.01 95 1021.2
20191119190347 50 360 0.0 4.0 0.00 0.01 0.01 95 1021.3
20191119190227 50 360 0.0 4.0 0.00 0.01 0.01 94 1021.3
20191119190121 49 360 1.0 4.0 0.00 0.01 0.01 94 1021.3
20191119190032 49 360 0.0 0.0 0.00 0.01 0.01 94 1021.3
20191119185923 49 360 0.0 0.0 0.00 0.01 0.01 94 1021.3
20191119185834 49 360 0.0 0.0 0.00 0.01 0.01 94 1021.4
20191119185724 49 360 0.0 0.0 0.00 0.01 0.01 94 1021.4
20191119185638 49 360 0.0 0.0 0.00 0.01 0.01 94 1021.3
20191119185528 49 360 0.0 0.0 0.00 0.01 0.01 94 1021.4
20191119185418 49 360 0.0 0.0 0.00 0.01 0.01 94 1021.4
20191119185329 49 360 0.0 0.0 0.00 0.01 0.01 94 1021.4
20191119185219 49 360 0.0 0.0 0.00 0.01 0.01 94 1021.4
20191119185129 49 360 0.0 0.0 0.00 0.01 0.01 94 1021.4
20191119185023 49 360 0.0 0.0 0.00 0.01 0.01 94 1021.4
20191119184933 49 360 0.0 0.0 0.00 0.01 0.01 94 1021.4
20191119184846 49 360 0.0 0.0 0.00 0.01 0.01 94 1021.4
20191119184726 49 10 0.0 0.0 0.00 0.01 0.01 94 1021.4
20191119184637 49 360 0.0 0.0 0.00 0.01 0.01 94 1021.4
20191119184528 49 360 0.0 0.0 0.00 0.01 0.01 94 1021.3
20191119184422 49 360 0.0 0.0 0.00 0.01 0.01 94 1021.4
20191119184331 49 360 0.0 0.0 0.00 0.01 0.01 94 1021.4
20191119184220 49 360 0.0 4.0 0.00 0.01 0.01 94 1021.4
20191119184130 49 360 0.0 4.0 0.00 0.01 0.01 94 1021.4
20191119184021 49 360 0.0 4.0 0.00 0.01 0.01 94 1021.4
20191119183932 49 360 0.0 4.0 0.00 0.01 0.01 94 1021.4
20191119183825 49 360 0.0 4.0 0.00 0.01 0.01 94 1021.5
20191119183735 49 360 0.0 4.0 0.00 0.01 0.01 94 1021.5
20191119183626 49 360 0.0 4.0 0.00 0.01 0.01 94 1021.4
20191119183536 49 360 0.0 4.0 0.00 0.01 0.01 94 1021.5
20191119183427 49 360 1.0 4.0 0.00 0.01 0.01 94 1021.5
20191119183344 49 5 2.0 4.0 0.00 0.01 0.01 94 1021.5
20191119183224 49 360 0.0 1.0 0.00 0.01 0.01 94 1021.4
20191119183134 49 360 0.0 1.0 0.00 0.01 0.01 94 1021.5
20191119183025 49 360 0.0 1.0 0.00 0.01 0.01 94 1021.5
20191119182935 49 360 0.0 1.0 0.00 0.01 0.01 94 1021.6
20191119182829 49 360 0.0 1.0 0.00 0.01 0.01 94 1021.5
20191119182719 49 360 0.0 1.0 0.00 0.01 0.01 94 1021.5
20191119182631 49 360 0.0 1.0 0.00 0.01 0.01 94 1021.6
20191119182520 49 360 0.0 1.0 0.00 0.01 0.01 94 1021.6
20191119182431 49 360 0.0 0.0 0.00 0.01 0.01 94 1021.6
20191119182325 49 360 0.0 0.0 0.00 0.01 0.01 94 1021.5
20191119182235 49 360 0.0 0.0 0.00 0.01 0.01 93 1021.6
20191119182125 49 360 0.0 0.0 0.00 0.01 0.01 94 1021.7
20191119182036 49 360 0.0 0.0 0.00 0.01 0.01 93 1021.6
20191119181927 49 360 0.0 0.0 0.00 0.01 0.01 94 1021.5
20191119181846 49 360 0.0 0.0 0.00 0.01 0.01 94 1021.6
20191119181725 49 360 0.0 0.0 0.00 0.01 0.01 94 1021.5
20191119181635 49 360 0.0 0.0 0.00 0.01 0.01 94 1021.6
20191119181525 49 360 0.0 0.0 0.00 0.01 0.01 94 1021.6
20191119181435 49 360 0.0 0.0 0.00 0.01 0.01 94 1021.6
20191119181325 49 360 0.0 0.0 0.00 0.01 0.01 94 1021.6
20191119181220 49 360 0.0 0.0 0.00 0.01 0.01 94 1021.7
20191119181131 49 360 0.0 0.0 0.00 0.01 0.01 94 1021.6
20191119181021 49 360 0.0 0.0 0.00 0.01 0.01 94 1021.7
20191119180821 49 360 0.0 0.0 0.00 0.01 0.01 94 1021.6
20191119180735 49 360 0.0 0.0 0.00 0.01 0.01 94 1021.6
20191119180533 49 360 0.0 0.0 0.00 0.01 0.01 94 1021.5
20191119180423 49 360 0.0 0.0 0.00 0.01 0.01 94 1021.5
20191119180336 49 360 0.0 0.0 0.00 0.01 0.01 94 1021.6
20191119180219 49 360 0.0 0.0 0.00 0.01 0.01 94 1021.6
20191119180129 49 360 0.0 0.0 0.00 0.01 0.01 94 1021.6
20191119180020 49 360 0.0 0.0 0.00 0.01 0.01 94 1021.6
20191119175931 49 360 0.0 0.0 0.00 0.01 0.01 94 1021.6
20191119175821 49 360 0.0 0.0 0.00 0.01 0.01 94 1021.6
20191119175736 49 360 0.0 0.0 0.00 0.01 0.01 94 1021.5
20191119175626 49 360 0.0 0.0 0.00 0.01 0.01 94 1021.5
20191119175536 49 360 0.0 0.0 0.00 0.01 0.01 94 1021.5
20191119175426 49 360 0.0 0.0 0.00 0.01 0.01 93 1021.6
20191119175336 49 360 0.0 0.0 0.00 0.01 0.01 93 1021.5
20191119175227 49 360 0.0 1.0 0.00 0.01 0.01 93 1021.6
20191119175122 49 360 0.0 1.0 0.00 0.01 0.01 93 1021.5
20191119175032 49 360 0.0 1.0 0.00 0.01 0.01 93 1021.6
20191119174923 49 360 0.0 2.0 0.00 0.01 0.01 93 1021.5
20191119174836 49 360 0.0 2.0 0.00 0.01 0.01 93 1021.5
20191119174735 49 360 0.0 2.0 0.00 0.01 0.01 93 1021.6
20191119174625 49 360 0.0 2.0 0.00 0.01 0.01 93 1021.5
20191119174428 49 360 0.0 3.0 0.00 0.01 0.01 93 1021.6
20191119174337 49 360 0.0 3.0 0.00 0.01 0.01 93 1021.6
20191119174227 49 360 0.0 3.0 0.00 0.01 0.01 93 1021.6
20191119174137 49 360 0.0 3.0 0.00 0.01 0.01 93 1021.6
20191119174027 50 360 0.0 3.0 0.00 0.01 0.01 93 1021.6
20191119173921 50 360 0.0 3.0 0.00 0.01 0.01 93 1021.7
20191119173831 50 360 0.0 3.0 0.00 0.01 0.01 93 1021.7
20191119173721 50 360 0.0 3.0 0.00 0.01 0.01 93 1021.7
20191119173631 50 360 0.0 3.0 0.00 0.01 0.01 93 1021.7
20191119173521 50 360 1.0 3.0 0.00 0.01 0.01 93 1021.7
20191119173436 50 360 1.0 2.0 0.00 0.01 0.01 93 1021.7
20191119173330 50 360 0.0 0.0 0.00 0.01 0.01 93 1021.7
20191119173230 50 360 0.0 0.0 0.00 0.01 0.01 94 1021.7
20191119173120 50 360 0.0 0.0 0.00 0.01 0.01 94 1021.8
20191119173030 50 360 0.0 0.0 0.00 0.01 0.01 94 1021.8
20191119172925 50 360 0.0 0.0 0.00 0.01 0.01 93 1021.8
20191119172836 50 360 0.0 0.0 0.00 0.01 0.01 93 1021.8
20191119172727 50 360 0.0 0.0 0.00 0.01 0.01 93 1021.7
20191119172618 50 360 0.0 0.0 0.00 0.01 0.01 93 1021.7
20191119172528 50 360 0.0 0.0 0.00 0.01 0.01 93 1021.8
20191119172422 50 360 0.0 0.0 0.00 0.01 0.01 93 1021.8
20191119172332 50 360 0.0 0.0 0.00 0.01 0.01 93 1021.7
20191119172222 50 360 0.0 0.0 0.00 0.01 0.01 93 1021.8
20191119172132 50 360 0.0 0.0 0.00 0.01 0.01 93 1021.8
20191119172023 50 360 0.0 0.0 0.00 0.01 0.01 93 1021.8
20191119171918 50 360 0.0 0.0 0.00 0.01 0.01 93 1021.7
20191119171832 50 360 0.0 0.0 0.00 0.01 0.01 93 1021.7
20191119171731 50 360 0.0 0.0 0.00 0.01 0.01 93 1021.8
20191119171622 50 360 0.0 0.0 0.00 0.01 0.01 93 1021.8
20191119171533 50 360 0.0 0.0 0.00 0.01 0.01 93 1021.8
20191119171424 50 360 0.0 0.0 0.00 0.01 0.01 93 1021.9
20191119171318 50 360 0.0 0.0 0.00 0.01 0.01 93 1021.9
20191119171228 50 360 0.0 0.0 0.00 0.01 0.01 93 1021.8
20191119171118 50 360 0.0 0.0 0.00 0.01 0.01 93 1021.8
20191119171028 50 360 0.0 0.0 0.00 0.01 0.01 93 1021.8
20191119170938 50 360 0.0 0.0 0.00 0.01 0.01 93 1021.7
20191119170831 50 360 0.0 0.0 0.00 0.01 0.01 93 1021.8
20191119170721 50 360 0.0 0.0 0.00 0.01 0.01 93 1021.8
20191119170632 50 360 0.0 0.0 0.00 0.01 0.01 93 1021.8
20191119170523 50 360 0.0 0.0 0.00 0.01 0.01 93 1021.8
20191119170433 50 360 0.0 0.0 0.00 0.01 0.01 93 1021.9
20191119170330 50 360 0.0 0.0 0.00 0.01 0.01 93 1021.8
20191119170230 50 360 0.0 0.0 0.00 0.01 0.01 93 1021.8
20191119170120 50 360 0.0 0.0 0.00 0.01 0.01 93 1021.7
20191119170030 50 360 0.0 0.0 0.00 0.01 0.01 93 1021.7
20191119165921 50 360 0.0 0.0 0.00 0.01 0.01 93 1021.7
20191119165831 50 360 0.0 0.0 0.00 0.01 0.01 93 1021.8
20191119165725 50 360 0.0 0.0 0.00 0.01 0.01 93 1021.8
20191119165635 50 360 0.0 0.0 0.00 0.01 0.01 93 1021.7
20191119165526 50 360 0.0 0.0 0.00 0.01 0.01 93 1021.7
20191119165417 50 360 0.0 0.0 0.00 0.01 0.01 93 1021.6
20191119165328 50 360 0.0 0.0 0.00 0.01 0.01 93 1021.6
20191119165222 50 360 0.0 0.0 0.00 0.01 0.01 93 1021.8
20191119165133 50 360 0.0 0.0 0.00 0.01 0.01 93 1021.7
20191119165024 50 360 0.0 0.0 0.00 0.01 0.01 93 1021.7
20191119164934 50 360 0.0 0.0 0.00 0.01 0.01 93 1021.6
20191119164849 50 360 0.0 0.0 0.00 0.01 0.01 93 1021.6
20191119164727 50 360 0.0 0.0 0.00 0.01 0.01 93 1021.7
20191119164621 50 360 0.0 0.0 0.00 0.01 0.01 93 1021.7
20191119164531 50 360 0.0 0.0 0.00 0.01 0.01 93 1021.7
20191119164421 50 360 0.0 0.0 0.00 0.01 0.01 93 1021.7
20191119164333 50 360 0.0 0.0 0.00 0.01 0.01 93 1021.8
20191119164223 50 360 0.0 0.0 0.00 0.01 0.01 93 1021.6
20191119164135 50 360 0.0 0.0 0.00 0.01 0.01 93 1021.7
20191119164029 50 360 0.0 0.0 0.00 0.01 0.01 93 1021.7
20191119163920 50 360 0.0 0.0 0.00 0.01 0.01 93 1021.7
20191119163831 50 360 0.0 0.0 0.00 0.01 0.01 93 1021.7
20191119163721 50 360 0.0 0.0 0.00 0.01 0.01 93 1021.7
20191119163632 50 360 0.0 0.0 0.00 0.01 0.01 93 1021.8
20191119163527 51 360 0.0 0.0 0.00 0.01 0.01 93 1021.7
20191119163418 51 360 0.0 0.0 0.00 0.01 0.01 93 1021.7
20191119163332 51 360 0.0 0.0 0.00 0.01 0.01 93 1021.7
20191119163231 51 360 0.0 0.0 0.00 0.01 0.01 93 1021.7
20191119163121 51 360 0.0 0.0 0.00 0.01 0.01 93 1021.7
20191119163035 51 360 0.0 0.0 0.00 0.01 0.01 93 1021.6
20191119162926 51 360 0.0 0.0 0.00 0.01 0.01 93 1021.6
20191119162837 51 360 0.0 0.0 0.00 0.01 0.01 93 1021.6
20191119162728 51 360 0.0 0.0 0.00 0.01 0.01 93 1021.6
20191119162618 51 360 0.0 0.0 0.00 0.01 0.01 93 1021.6
20191119162532 51 360 0.0 0.0 0.00 0.01 0.01 93 1021.7
20191119162422 51 360 0.0 0.0 0.00 0.01 0.01 93 1021.8
20191119162332 51 360 0.0 0.0 0.00 0.01 0.01 93 1021.7
20191119162222 51 360 0.0 0.0 0.00 0.01 0.01 93 1021.7
20191119162132 51 360 0.0 0.0 0.00 0.01 0.01 93 1021.7
20191119162026 51 360 0.0 0.0 0.00 0.01 0.01 93 1021.8
20191119161936 51 360 0.0 0.0 0.00 0.01 0.01 93 1021.7
20191119161831 51 360 0.0 0.0 0.00 0.01 0.01 93 1021.7
20191119161730 51 360 0.0 0.0 0.00 0.01 0.01 93 1021.7
20191119161620 51 360 0.0 0.0 0.00 0.01 0.01 93 1021.7
20191119161530 51 360 0.0 0.0 0.00 0.01 0.01 93 1021.7
20191119161426 51 360 0.0 0.0 0.00 0.01 0.01 93 1021.7
20191119161336 51 360 0.0 0.0 0.00 0.01 0.01 93 1021.8
20191119161226 51 360 0.0 0.0 0.00 0.01 0.01 93 1021.7
20191119161117 51 360 0.0 0.0 0.00 0.01 0.01 93 1021.7
20191119161028 51 360 0.0 0.0 0.00 0.01 0.01 93 1021.8
20191119160922 51 360 0.0 0.0 0.00 0.01 0.01 93 1021.7
20191119160833 51 360 0.0 0.0 0.00 0.01 0.01 93 1021.7
20191119160722 51 360 0.0 0.0 0.00 0.01 0.01 93 1021.7
20191119160632 51 360 0.0 0.0 0.00 0.01 0.01 93 1021.7
20191119160522 51 360 0.0 0.0 0.00 0.01 0.01 93 1021.7
20191119160330 50 360 0.0 0.0 0.00 0.01 0.01 93 1021.6
20191119160230 50 360 0.0 0.0 0.00 0.01 0.01 93 1021.6
20191119160120 51 360 0.0 0.0 0.00 0.01 0.01 93 1021.7
20191119160031 50 360 0.0 0.0 0.00 0.01 0.01 93 1021.6
20191119155925 50 360 0.0 0.0 0.00 0.01 0.01 93 1021.7
20191119155836 50 360 0.0 0.0 0.00 0.01 0.01 93 1021.7
20191119155726 50 360 0.0 0.0 0.00 0.01 0.01 93 1021.7
20191119155637 50 360 0.0 0.0 0.00 0.01 0.01 93 1021.6
20191119155527 50 360 0.0 0.0 0.00 0.01 0.01 93 1021.7
20191119155437 50 360 0.0 0.0 0.00 0.01 0.01 93 1021.7
20191119155330 50 360 0.0 0.0 0.00 0.01 0.01 93 1021.7
20191119155240 50 360 0.0 0.0 0.00 0.01 0.01 93 1021.7
20191119155125 50 360 0.0 0.0 0.00 0.01 0.01 93 1021.7
20191119155035 50 360 0.0 0.0 0.00 0.01 0.01 93 1021.8
20191119154923 50 360 0.0 0.0 0.00 0.01 0.01 93 1021.7
20191119154835 50 360 0.0 0.0 0.00 0.01 0.01 93 1021.7
20191119154718 50 360 0.0 0.0 0.00 0.01 0.01 93 1021.7
20191119154629 50 360 0.0 0.0 0.00 0.01 0.01 93 1021.7
20191119154521 51 360 0.0 0.0 0.00 0.01 0.01 93 1021.7
20191119154431 50 360 0.0 0.0 0.00 0.01 0.01 93 1021.7
20191119154322 51 360 0.0 0.0 0.00 0.01 0.01 93 1021.7
20191119154232 51 360 0.0 0.0 0.00 0.01 0.01 93 1021.7
20191119154127 51 360 0.0 0.0 0.00 0.01 0.01 93 1021.8
20191119154018 51 360 0.0 0.0 0.00 0.01 0.01 93 1021.8
20191119153928 51 360 0.0 0.0 0.00 0.01 0.01 93 1021.8
20191119153818 51 360 0.0 0.0 0.00 0.01 0.01 93 1021.8
20191119153728 51 360 0.0 0.0 0.00 0.01 0.01 93 1021.8
20191119153624 51 360 0.0 0.0 0.00 0.01 0.01 93 1021.8
20191119153534 51 360 0.0 0.0 0.00 0.01 0.01 93 1021.8
20191119153425 51 360 0.0 0.0 0.00 0.01 0.01 93 1021.8
20191119153339 51 360 0.0 0.0 0.00 0.01 0.01 93 1021.8
20191119153218 51 360 0.0 0.0 0.00 0.01 0.01 93 1021.8
20191119153133 51 360 0.0 0.0 0.00 0.01 0.01 93 1021.8
20191119153023 51 360 0.0 0.0 0.00 0.01 0.01 93 1021.8
20191119152933 51 360 0.0 0.0 0.00 0.01 0.01 93 1021.8
20191119152823 51 360 0.0 0.0 0.00 0.01 0.01 93 1021.9
20191119152733 51 360 0.0 0.0 0.00 0.01 0.01 93 1021.8
20191119152627 51 360 0.0 0.0 0.00 0.01 0.01 93 1021.8
20191119152518 51 360 0.0 0.0 0.00 0.01 0.01 94 1021.7
20191119152428 51 360 0.0 0.0 0.00 0.01 0.01 94 1021.7
20191119152337 51 360 0.0 0.0 0.00 0.01 0.01 94 1021.8
20191119152227 51 360 0.0 0.0 0.00 0.01 0.01 94 1021.7
20191119152121 51 360 0.0 0.0 0.00 0.01 0.01 94 1021.7
20191119152030 51 360 0.0 0.0 0.00 0.01 0.01 94 1021.7
20191119151922 51 360 0.0 0.0 0.00 0.01 0.01 94 1021.7
20191119151835 51 360 0.0 0.0 0.00 0.01 0.01 94 1021.7
20191119151734 51 360 0.0 0.0 0.00 0.01 0.01 93 1021.7
20191119151625 51 360 0.0 0.0 0.00 0.01 0.01 93 1021.7
20191119151519 51 360 0.0 0.0 0.00 0.01 0.01 93 1021.8
20191119151430 51 360 0.0 0.0 0.00 0.01 0.01 93 1021.8
20191119151320 51 360 0.0 0.0 0.00 0.01 0.01 93 1021.7
20191119151232 51 360 0.0 0.0 0.00 0.01 0.01 93 1021.8
20191119151122 51 360 0.0 0.0 0.00 0.01 0.01 93 1021.7
20191119151036 51 360 0.0 0.0 0.00 0.01 0.01 93 1021.8
20191119150926 51 360 0.0 0.0 0.00 0.01 0.01 93 1021.7
20191119150817 51 360 0.0 0.0 0.00 0.01 0.01 93 1021.7
20191119150728 51 360 0.0 0.0 0.00 0.01 0.01 94 1021.7
20191119150618 51 360 0.0 0.0 0.00 0.01 0.01 94 1021.7
20191119150532 51 360 0.0 0.0 0.00 0.01 0.01 94 1021.7
20191119150423 51 360 0.0 0.0 0.00 0.01 0.01 94 1021.7
20191119150335 51 360 0.0 0.0 0.00 0.01 0.01 94 1021.6
20191119150234 51 360 0.0 0.0 0.00 0.01 0.01 94 1021.6
20191119150124 51 360 0.0 0.0 0.00 0.01 0.01 94 1021.6
20191119150034 51 360 0.0 0.0 0.00 0.01 0.01 94 1021.7
20191119145929 51 360 0.0 0.0 0.00 0.01 0.01 94 1021.7
20191119145820 51 360 0.0 0.0 0.00 0.01 0.01 94 1021.7
20191119145731 51 360 0.0 0.0 0.00 0.01 0.01 94 1021.7
20191119145622 51 360 0.0 0.0 0.00 0.01 0.01 94 1021.7
20191119145532 51 360 0.0 0.0 0.00 0.01 0.01 94 1021.7
20191119145426 51 360 0.0 0.0 0.00 0.01 0.01 94 1021.6
20191119145336 51 360 0.0 0.0 0.00 0.02 0.01 94 1021.6
20191119145226 51 360 0.0 0.0 0.00 0.02 0.01 94 1021.7
20191119145136 51 360 0.0 0.0 0.00 0.02 0.01 94 1021.6
20191119145026 51 360 0.0 0.0 0.00 0.02 0.01 94 1021.6
20191119144936 51 360 0.0 0.0 0.00 0.02 0.01 93 1021.6
20191119144829 51 360 0.0 0.0 0.00 0.02 0.01 93 1021.7
20191119144732 51 360 0.0 0.0 0.00 0.02 0.01 93 1021.6
20191119144623 51 360 0.0 0.0 0.00 0.02 0.01 93 1021.6
20191119144534 51 360 0.0 0.0 0.00 0.02 0.01 93 1021.6
20191119144425 51 360 0.0 0.0 0.00 0.02 0.01 93 1021.6
20191119144336 51 360 0.0 0.0 0.00 0.02 0.01 93 1021.6
20191119144230 51 360 0.0 0.0 0.00 0.02 0.01 93 1021.7
20191119144120 50 360 0.0 0.0 0.00 0.02 0.01 93 1021.6
20191119144030 50 360 0.0 0.0 0.00 0.02 0.01 93 1021.6
20191119143921 50 360 0.0 0.0 0.00 0.02 0.01 93 1021.6
20191119143831 50 360 0.0 0.0 0.00 0.02 0.01 93 1021.6
20191119143726 50 360 0.0 0.0 0.00 0.02 0.01 93 1021.6
20191119143636 50 360 0.0 0.0 0.00 0.02 0.01 93 1021.6
20191119143526 50 360 0.0 0.0 0.00 0.02 0.01 93 1021.6
20191119143436 50 360 0.0 0.0 0.00 0.02 0.01 93 1021.6
20191119143347 50 360 0.0 0.0 0.00 0.02 0.01 93 1021.6
20191119143227 50 360 0.0 0.0 0.00 0.02 0.01 93 1021.6
20191119143121 50 360 0.0 0.0 0.00 0.02 0.01 93 1021.6
20191119143032 50 360 0.0 0.0 0.00 0.02 0.01 93 1021.6
20191119142922 50 360 0.0 0.0 0.00 0.02 0.01 93 1021.6
20191119142832 50 360 0.0 0.0 0.00 0.02 0.01 93 1021.6
20191119142722 50 360 0.0 0.0 0.00 0.02 0.01 93 1021.6
20191119142636 50 360 0.0 0.0 0.00 0.02 0.01 93 1021.6
20191119142527 50 360 0.0 0.0 0.00 0.02 0.01 93 1021.6
20191119142417 50 360 0.0 0.0 0.00 0.02 0.01 93 1021.6
20191119142328 50 360 0.0 0.0 0.00 0.02 0.01 93 1021.6
20191119142219 50 360 0.0 0.0 0.00 0.02 0.01 93 1021.6
20191119142134 50 360 0.0 0.0 0.00 0.02 0.01 93 1021.6
20191119142026 50 360 0.0 0.0 0.00 0.02 0.01 93 1021.6
20191119141936 51 360 0.0 0.0 0.00 0.02 0.01 93 1021.6
20191119141832 51 360 0.0 0.0 0.00 0.02 0.01 93 1021.6
20191119141730 51 360 0.0 0.0 0.00 0.02 0.01 93 1021.6
20191119141624 51 360 0.0 0.0 0.00 0.02 0.01 93 1021.6
20191119141534 51 360 0.0 0.0 0.00 0.02 0.01 93 1021.6
20191119141424 51 360 0.0 0.0 0.00 0.02 0.01 93 1021.7
20191119141335 51 360 0.0 0.0 0.00 0.02 0.01 93 1021.7
20191119141225 51 360 0.0 0.0 0.00 0.02 0.01 93 1021.5
20191119141119 51 360 0.0 0.0 0.00 0.02 0.01 93 1021.6
20191119141029 51 360 0.0 0.0 0.00 0.02 0.01 93 1021.6
20191119140920 51 360 0.0 0.0 0.00 0.02 0.01 93 1021.6
20191119140830 51 360 0.0 0.0 0.00 0.02 0.01 93 1021.6
20191119140719 51 360 0.0 0.0 0.00 0.02 0.01 93 1021.6
20191119140634 51 360 0.0 0.0 0.00 0.02 0.01 93 1021.6
20191119140525 51 360 0.0 0.0 0.00 0.02 0.01 93 1021.6
20191119140455 51 360 0.0 0.0 0.00 0.02 0.01 93 1021.5
20191119140348 51 360 0.0 0.0 0.00 0.02 0.01 93 1021.5
20191119140226 51 360 0.0 0.0 0.00 0.02 0.01 93 1021.5
20191119140137 51 360 0.0 0.0 0.00 0.02 0.01 93 1021.6
20191119140033 51 360 0.0 0.0 0.00 0.02 0.01 93 1021.5
20191119135922 51 360 0.0 0.0 0.00 0.02 0.01 93 1021.6
20191119135833 51 360 0.0 0.0 0.00 0.02 0.01 93 1021.5
20191119135723 51 360 0.0 0.0 0.00 0.02 0.01 93 1021.5
20191119135633 51 360 0.0 0.0 0.00 0.02 0.01 93 1021.5
20191119135527 51 360 0.0 0.0 0.00 0.02 0.01 94 1021.5
20191119135458 51 360 0.0 0.0 0.00 0.02 0.01 94 1021.5
20191119135327 51 360 0.0 0.0 0.00 0.02 0.01 94 1021.5
20191119135218 51 360 0.0 0.0 0.00 0.02 0.01 94 1021.5
20191119135129 51 360 0.0 0.0 0.00 0.02 0.01 94 1021.5
20191119135020 51 360 0.0 0.0 0.00 0.02 0.01 94 1021.5
20191119134934 51 360 0.0 0.0 0.00 0.02 0.01 94 1021.5
20191119134847 51 360 0.0 0.0 0.00 0.02 0.01 94 1021.4
20191119134726 51 360 0.0 0.0 0.00 0.02 0.01 94 1021.5
20191119134617 51 360 0.0 0.0 0.00 0.02 0.01 94 1021.5
20191119134530 51 360 0.0 0.0 0.00 0.02 0.01 94 1021.5
20191119134419 51 360 0.0 0.0 0.00 0.02 0.01 94 1021.5
20191119134334 51 360 0.0 0.0 0.00 0.02 0.01 94 1021.4
20191119134223 51 360 0.0 0.0 0.00 0.02 0.01 94 1021.5
20191119134134 51 360 0.0 0.0 0.00 0.02 0.01 94 1021.5
20191119134024 51 360 0.0 0.0 0.00 0.02 0.01 94 1021.4
20191119133934 51 360 0.0 0.0 0.00 0.02 0.01 94 1021.5
20191119133828 51 360 0.0 0.0 0.00 0.02 0.01 94 1021.5
20191119133719 51 360 0.0 0.0 0.00 0.02 0.01 94 1021.5
20191119133629 51 360 0.0 0.0 0.00 0.02 0.01 94 1021.6
20191119133520 51 360 0.0 0.0 0.00 0.02 0.01 94 1021.5
20191119133431 51 360 0.0 0.0 0.00 0.02 0.01 94 1021.6
20191119133348 51 360 0.0 0.0 0.00 0.02 0.01 94 1021.6
20191119133227 51 360 0.0 0.0 0.00 0.02 0.01 94 1021.5
20191119133117 51 360 0.0 0.0 0.00 0.02 0.01 94 1021.6
20191119133028 51 360 0.0 0.0 0.00 0.02 0.01 94 1021.5
20191119132919 51 360 0.0 0.0 0.00 0.02 0.01 94 1021.5
20191119132832 51 360 0.0 1.0 0.00 0.02 0.01 94 1021.4
20191119132723 51 360 0.0 1.0 0.00 0.02 0.01 94 1021.4
20191119132634 51 360 0.0 1.0 0.00 0.02 0.01 94 1021.4
20191119132435 51 360 0.0 1.0 0.00 0.02 0.01 94 1021.3
20191119132329 51 360 0.0 1.0 0.00 0.02 0.01 94 1021.4
20191119132219 51 360 0.0 1.0 0.00 0.02 0.01 94 1021.4
20191119132129 51 360 0.0 1.0 0.00 0.02 0.01 94 1021.3
20191119132019 51 360 0.0 1.0 0.00 0.02 0.01 95 1021.3
20191119131929 51 360 0.0 1.0 0.00 0.02 0.01 95 1021.3
20191119131842 51 360 0.0 0.0 0.00 0.02 0.01 95 1021.3
20191119131723 51 360 0.0 0.0 0.00 0.02 0.01 95 1021.5
20191119131632 51 360 0.0 0.0 0.00 0.02 0.01 95 1021.4
20191119131523 51 360 0.0 0.0 0.00 0.02 0.01 95 1021.4
20191119131434 51 360 0.0 0.0 0.00 0.02 0.01 95 1021.4
20191119131324 51 360 0.0 0.0 0.00 0.02 0.01 95 1021.5
20191119131236 50 360 0.0 0.0 0.00 0.02 0.01 95 1021.4
20191119131126 50 360 0.0 0.0 0.00 0.02 0.01 95 1021.4
20191119131036 50 360 0.0 0.0 0.00 0.02 0.01 95 1021.5
20191119130926 50 360 0.0 0.0 0.00 0.02 0.01 95 1021.4
20191119130817 50 360 0.0 0.0 0.00 0.02 0.01 95 1021.4
20191119130732 50 360 0.0 0.0 0.00 0.02 0.01 95 1021.4
20191119130622 50 360 0.0 0.0 0.00 0.02 0.01 95 1021.4
20191119130532 50 360 0.0 0.0 0.00 0.02 0.01 95 1021.4
20191119130423 50 360 0.0 0.0 0.00 0.02 0.01 95 1021.4
20191119130337 50 360 0.0 0.0 0.00 0.02 0.01 95 1021.4
20191119130220 50 360 0.0 0.0 0.00 0.02 0.01 95 1021.4
20191119130129 50 360 0.0 0.0 0.00 0.02 0.01 95 1021.4
20191119130039 50 360 0.0 0.0 0.00 0.02 0.01 95 1021.4
20191119125927 50 360 0.0 0.0 0.00 0.02 0.01 95 1021.4
20191119125818 50 360 0.0 0.0 0.00 0.02 0.01 95 1021.4
20191119125728 50 360 0.0 0.0 0.00 0.02 0.01 95 1021.4
20191119125643 50 360 0.0 0.0 0.00 0.02 0.01 95 1021.4
20191119125533 50 360 0.0 0.0 0.00 0.02 0.01 95 1021.5
20191119125423 50 360 0.0 2.0 0.00 0.02 0.01 95 1021.5
20191119125333 50 360 0.0 3.0 0.00 0.02 0.01 95 1021.5
20191119125224 50 360 0.0 3.0 0.00 0.02 0.01 95 1021.4
20191119125133 50 360 0.0 3.0 0.00 0.02 0.01 95 1021.4
20191119125023 50 360 0.0 3.0 0.00 0.02 0.01 95 1021.5
20191119124918 50 360 0.0 3.0 0.00 0.02 0.01 95 1021.4
20191119124831 50 360 0.0 3.0 0.00 0.02 0.01 95 1021.4
20191119124730 50 360 0.0 4.0 0.00 0.02 0.01 95 1021.5
20191119124621 50 360 0.0 4.0 0.00 0.02 0.01 95 1021.4
20191119124531 50 360 1.0 4.0 0.00 0.02 0.01 95 1021.4
20191119124426 50 360 0.0 6.0 0.00 0.02 0.01 95 1021.4
20191119124335 50 360 0.0 6.0 0.00 0.02 0.01 95 1021.4
20191119124226 50 360 0.0 6.0 0.00 0.02 0.01 95 1021.3
20191119124137 50 360 0.0 6.0 0.00 0.02 0.01 95 1021.3
20191119124027 50 360 2.0 6.0 0.00 0.02 0.01 95 1021.3
20191119123920 50 360 3.0 6.0 0.00 0.02 0.01 95 1021.3
20191119123829 50 360 3.0 6.0 0.00 0.02 0.01 95 1021.4
20191119123720 50 360 1.0 6.0 0.00 0.02 0.01 95 1021.4
20191119123631 50 360 3.0 6.0 0.00 0.02 0.01 95 1021.4
20191119123521 50 360 0.0 4.0 0.00 0.02 0.01 95 1021.3
20191119123431 50 360 0.0 4.0 0.00 0.02 0.01 95 1021.4
20191119123348 50 360 0.0 4.0 0.00 0.02 0.01 95 1021.3
20191119123226 50 360 0.0 4.0 0.00 0.02 0.01 95 1021.4
20191119123137 50 360 0.0 4.0 0.00 0.02 0.01 95 1021.4
20191119123027 50 17 1.0 5.0 0.00 0.02 0.01 95 1021.4
20191119122937 50 360 1.0 5.0 0.00 0.02 0.01 95 1021.4
20191119122831 50 360 1.0 5.0 0.00 0.02 0.01 95 1021.3
20191119122722 50 360 0.0 5.0 0.00 0.02 0.01 95 1021.4
20191119122631 50 360 0.0 5.0 0.00 0.02 0.01 95 1021.4
20191119122520 50 360 0.0 5.0 0.00 0.02 0.01 95 1021.4
20191119122431 50 360 0.0 6.0 0.00 0.02 0.01 95 1021.5
20191119122325 50 360 0.0 6.0 0.00 0.02 0.01 95 1021.4
20191119122235 49 360 1.0 6.0 0.00 0.02 0.01 95 1021.4
20191119122125 49 360 1.0 6.0 0.00 0.02 0.01 95 1021.5
20191119122035 49 360 0.0 6.0 0.00 0.02 0.01 95 1021.4
20191119121925 49 360 0.0 6.0 0.00 0.02 0.01 95 1021.4
20191119121838 49 360 0.0 6.0 0.00 0.02 0.01 95 1021.4
20191119121721 49 360 1.0 6.0 0.00 0.02 0.01 95 1021.4
20191119121631 50 360 2.0 6.0 0.00 0.02 0.01 95 1021.5
20191119121521 49 360 0.0 0.0 0.00 0.02 0.01 95 1021.4
20191119121432 50 360 0.0 1.0 0.00 0.02 0.01 95 1021.4
20191119121322 49 360 0.0 1.0 0.00 0.02 0.01 95 1021.4
20191119121217 49 360 0.0 1.0 0.00 0.02 0.01 95 1021.4
20191119121128 49 360 0.0 1.0 0.00 0.02 0.01 95 1021.4
20191119121036 49 360 0.0 1.0 0.00 0.02 0.01 95 1021.4
20191119120925 49 360 0.0 3.0 0.00 0.02 0.01 96 1021.4
20191119120836 49 360 0.0 3.0 0.00 0.02 0.01 96 1021.4
20191119120730 49 360 0.0 5.0 0.00 0.02 0.01 96 1021.4
20191119120621 49 360 0.0 5.0 0.00 0.02 0.01 96 1021.4
20191119120532 49 360 0.0 5.0 0.00 0.02 0.01 96 1021.4
20191119120423 49 360 0.0 5.0 0.00 0.02 0.01 96 1021.4
20191119120336 49 360 0.0 5.0 0.00 0.02 0.01 96 1021.4
20191119120219 49 360 0.0 5.0 0.00 0.02 0.01 96 1021.4
20191119120129 49 360 0.0 5.0 0.00 0.02 0.01 96 1021.4
20191119120019 49 360 2.0 5.0 0.00 0.02 0.01 96 1021.4
20191119115928 49 360 1.0 5.0 0.00 0.02 0.01 96 1021.4
20191119115819 49 360 1.0 5.0 0.00 0.02 0.01 96 1021.4
20191119115729 49 360 0.0 4.0 0.00 0.02 0.01 96 1021.4
20191119115619 49 360 0.0 4.0 0.00 0.02 0.01 95 1021.4
20191119115534 49 360 2.0 4.0 0.00 0.02 0.01 95 1021.4
20191119115425 49 360 0.0 2.0 0.00 0.02 0.01 95 1021.4
20191119115335 49 360 0.0 2.0 0.00 0.02 0.01 95 1021.5
20191119115225 49 360 1.0 2.0 0.00 0.02 0.01 95 1021.4
20191119115135 49 360 0.0 0.0 0.00 0.02 0.01 95 1021.5
20191119115029 49 13 0.0 0.0 0.00 0.02 0.01 95 1021.4
20191119114939 49 360 0.0 1.0 0.00 0.02 0.01 95 1021.4
20191119114836 49 360 0.0 1.0 0.00 0.02 0.01 95 1021.4
20191119114734 49 360 0.0 2.0 0.00 0.02 0.01 95 1021.4
20191119114625 49 11 0.0 4.0 0.00 0.02 0.01 96 1021.4
20191119114535 49 360 0.0 4.0 0.00 0.02 0.01 96 1021.4
20191119114429 49 360 0.0 4.0 0.00 0.02 0.01 96 1021.4
20191119114318 49 360 0.0 4.0 0.00 0.02 0.01 96 1021.4
20191119114229 49 360 0.0 4.0 0.00 0.02 0.01 96 1021.5
20191119114120 49 360 0.0 4.0 0.00 0.02 0.01 96 1021.5
20191119114031 48 360 0.0 4.0 0.00 0.02 0.01 95 1021.6
20191119113927 48 360 1.0 4.0 0.00 0.02 0.01 95 1021.5
20191119113837 48 360 1.0 4.0 0.00 0.02 0.01 95 1021.5
20191119113727 48 360 0.0 4.0 0.00 0.02 0.01 95 1021.5
20191119113617 48 360 0.0 4.0 0.00 0.02 0.01 95 1021.5
20191119113528 48 360 0.0 5.0 0.00 0.02 0.01 95 1021.5
20191119113423 48 360 3.0 5.0 0.00 0.02 0.01 95 1021.5
20191119113337 48 360 2.0 5.0 0.00 0.02 0.01 95 1021.4
20191119113235 48 360 0.0 5.0 0.00 0.02 0.01 95 1021.5
20191119113125 48 360 0.0 5.0 0.00 0.02 0.01 95 1021.5
20191119113035 48 360 0.0 5.0 0.00 0.02 0.01 95 1021.5
20191119112817 48 360 2.0 5.0 0.00 0.02 0.01 95 1021.6
20191119112727 48 360 2.0 5.0 0.00 0.02 0.01 95 1021.6
20191119112637 48 360 0.0 4.0 0.00 0.02 0.01 95 1021.6
20191119112527 48 360 0.0 4.0 0.00 0.02 0.01 95 1021.6
20191119112422 48 360 0.0 6.0 0.00 0.02 0.01 95 1021.6
20191119112333 48 360 0.0 6.0 0.00 0.02 0.01 95 1021.6
20191119112243 48 360 0.0 6.0 0.00 0.02 0.01 95 1021.7
20191119112132 48 360 1.0 6.0 0.00 0.02 0.01 95 1021.7
20191119112023 48 360 1.0 6.0 0.00 0.02 0.01 95 1021.8
20191119111933 48 360 2.0 6.0 0.00 0.02 0.01 95 1021.7
20191119111830 48 360 1.0 6.0 0.00 0.02 0.01 95 1021.7
20191119111729 48 360 0.0 6.0 0.00 0.02 0.01 95 1021.7
20191119111620 48 360 3.0 6.0 0.00 0.02 0.01 95 1021.7
20191119111529 48 360 2.0 6.0 0.00 0.02 0.01 95 1021.7
20191119111420 48 360 0.0 4.0 0.00 0.02 0.01 95 1021.6
20191119111335 48 360 0.0 4.0 0.00 0.02 0.01 95 1021.7
20191119111225 48 360 2.0 4.0 0.00 0.02 0.01 95 1021.8
20191119111135 48 360 0.0 4.0 0.00 0.02 0.01 95 1021.8
20191119111026 48 360 0.0 4.0 0.00 0.02 0.01 95 1021.8
20191119110917 48 360 0.0 4.0 0.00 0.02 0.01 95 1021.7
20191119110832 48 360 0.0 4.0 0.00 0.02 0.01 95 1021.7
20191119110721 48 360 1.0 4.0 0.00 0.02 0.01 95 1021.8
20191119110631 48 360 0.0 1.0 0.00 0.02 0.01 95 1021.8
20191119110522 48 360 0.0 1.0 0.00 0.02 0.01 95 1021.8
20191119110431 48 360 0.0 1.0 0.00 0.02 0.01 95 1021.8
20191119110343 48 360 0.0 1.0 0.00 0.02 0.01 95 1021.7
20191119110226 48 360 0.0 1.0 0.00 0.02 0.01 95 1021.8
20191119110117 48 360 0.0 1.0 0.00 0.02 0.01 95 1021.8
20191119110028 48 360 0.0 4.0 0.00 0.02 0.01 95 1021.9
20191119105919 48 360 0.0 5.0 0.00 0.02 0.01 95 1021.8
20191119105829 47 360 0.0 5.0 0.00 0.02 0.01 95 1021.8
20191119105723 47 360 0.0 5.0 0.00 0.02 0.01 95 1021.8
20191119105634 47 360 0.0 5.0 0.00 0.02 0.01 95 1021.8
20191119105524 47 360 0.0 5.0 0.00 0.02 0.01 95 1021.8
20191119105434 47 360 0.0 5.0 0.00 0.02 0.01 95 1021.8
20191119105324 47 360 0.0 5.0 0.00 0.02 0.01 95 1021.8
20191119105234 47 360 1.0 5.0 0.00 0.02 0.01 95 1021.8
20191119105128 47 360 3.0 5.0 0.00 0.02 0.01 95 1021.8
20191119104927 47 360 0.0 4.0 0.00 0.02 0.01 95 1021.8
20191119104839 47 360 0.0 4.0 0.00 0.02 0.01 95 1021.8
20191119104718 47 360 0.0 4.0 0.00 0.02 0.01 95 1021.8
20191119104628 47 360 0.0 4.0 0.00 0.02 0.01 95 1021.8
20191119104523 47 360 0.0 5.0 0.00 0.02 0.01 95 1021.8
20191119104434 47 360 1.0 5.0 0.00 0.02 0.01 95 1021.8
20191119104325 47 360 2.0 5.0 0.00 0.02 0.01 95 1021.8
20191119104236 47 360 1.0 5.0 0.00 0.02 0.01 95 1021.8
20191119104127 47 360 0.0 5.0 0.00 0.02 0.01 95 1021.8
20191119104021 47 360 0.0 5.0 0.00 0.02 0.01 95 1021.8
20191119103931 47 360 0.0 5.0 0.00 0.02 0.01 95 1021.8
20191119103822 47 360 1.0 5.0 0.00 0.02 0.01 95 1021.8
20191119103733 47 360 2.0 5.0 0.00 0.02 0.01 95 1021.9
20191119103624 47 360 1.0 3.0 0.00 0.02 0.01 95 1021.9
20191119103518 47 360 0.0 3.0 0.00 0.02 0.01 95 1021.8
20191119103428 47 360 0.0 3.0 0.00 0.02 0.01 95 1021.8
20191119103341 47 11 0.0 3.0 0.00 0.02 0.01 95 1021.8
20191119103220 47 360 0.0 3.0 0.00 0.02 0.01 95 1021.9
20191119103131 47 360 0.0 6.0 0.00 0.02 0.01 95 1021.9
20191119103026 47 360 0.0 6.0 0.00 0.02 0.01 95 1021.8
20191119102917 47 360 1.0 6.0 0.00 0.02 0.01 95 1021.9
20191119102827 47 360 0.0 6.0 0.00 0.02 0.01 95 1021.9
20191119102625 47 360 1.0 6.0 0.00 0.02 0.01 95 1021.9
20191119102520 47 360 0.0 6.0 0.00 0.02 0.01 95 1021.9
20191119102430 47 360 0.0 6.0 0.00 0.02 0.01 95 1021.8
20191119102319 47 360 3.0 6.0 0.00 0.02 0.01 95 1021.9
20191119102229 47 360 0.0 5.0 0.00 0.02 0.01 95 1021.9
20191119102120 47 360 0.0 5.0 0.00 0.02 0.01 95 1021.9
20191119102029 47 360 0.0 5.0 0.00 0.02 0.01 95 1021.9
20191119101924 47 360 1.0 5.0 0.00 0.02 0.01 95 1021.9
20191119101838 47 360 2.0 5.0 0.00 0.02 0.01 95 1022.1
20191119101736 47 360 2.0 5.0 0.00 0.02 0.01 95 1021.9
20191119101628 47 360 0.0 5.0 0.00 0.02 0.01 95 1021.9
20191119101518 47 360 4.0 5.0 0.00 0.02 0.01 95 1022.0
20191119101432 47 360 2.0 4.0 0.00 0.02 0.01 95 1022.0
20191119101322 47 360 0.0 7.0 0.00 0.02 0.01 95 1021.9
20191119101233 47 360 0.0 7.0 0.00 0.02 0.01 95 1021.9
20191119101123 47 360 0.0 7.0 0.00 0.02 0.01 95 1021.9
20191119101034 47 360 0.0 7.0 0.00 0.02 0.01 95 1021.9
20191119100929 47 360 0.0 7.0 0.00 0.02 0.01 95 1021.9
20191119100819 47 360 0.0 7.0 0.00 0.02 0.01 95 1021.9
20191119100730 47 360 0.0 7.0 0.00 0.02 0.01 95 1021.8
20191119100621 47 360 0.0 7.0 0.00 0.02 0.01 95 1021.9
20191119100532 47 360 1.0 7.0 0.00 0.02 0.01 95 1021.9
20191119100421 47 360 0.0 7.0 0.00 0.02 0.01 95 1021.9
20191119100339 47 360 1.0 5.0 0.00 0.02 0.01 95 1021.9
20191119100217 47 360 0.0 5.0 0.00 0.02 0.01 95 1021.8
20191119100125 47 360 0.0 5.0 0.00 0.02 0.01 95 1021.9
20191119100032 47 360 2.0 5.0 0.00 0.02 0.01 95 1021.8
20191119095922 47 360 2.0 5.0 0.00 0.02 0.01 95 1021.9
20191119095832 47 360 0.0 3.0 0.00 0.02 0.01 95 1021.9
20191119095746 47 360 0.0 3.0 0.00 0.02 0.01 95 1021.9
20191119095636 48 360 1.0 3.0 0.00 0.02 0.01 95 1021.9
20191119095525 48 360 0.0 5.0 0.00 0.02 0.01 95 1021.9
20191119095435 48 360 0.0 5.0 0.00 0.02 0.01 95 1021.9
20191119095325 48 360 0.0 5.0 0.00 0.02 0.01 95 1022.0
20191119095236 47 360 0.0 5.0 0.00 0.02 0.01 95 1021.9
20191119095129 47 360 0.0 5.0 0.00 0.02 0.01 95 1021.9
20191119095019 47 360 0.0 5.0 0.00 0.02 0.01 95 1022.0
20191119094950 47 360 0.0 5.0 0.00 0.02 0.01 95 1022.0
20191119094841 47 360 0.0 5.0 0.00 0.02 0.01 95 1022.0
20191119094720 47 360 2.0 5.0 0.00 0.02 0.01 95 1022.0
20191119094631 47 360 1.0 4.0 0.00 0.02 0.01 95 1022.1
20191119094525 47 360 1.0 4.0 0.00 0.02 0.01 95 1022.0
20191119094436 47 360 0.0 2.0 0.00 0.02 0.01 95 1022.1
20191119094325 47 360 0.0 4.0 0.00 0.02 0.01 95 1022.1
20191119094236 47 360 0.0 5.0 0.00 0.02 0.01 95 1022.1
20191119094127 47 360 0.0 5.0 0.00 0.02 0.01 95 1022.2
20191119094021 47 360 0.0 5.0 0.00 0.02 0.01 95 1022.1
20191119093932 47 360 0.0 5.0 0.00 0.02 0.01 95 1022.3
20191119093823 47 360 0.0 5.0 0.00 0.02 0.01 95 1022.2
20191119093733 47 360 0.0 5.0 0.00 0.02 0.01 95 1022.1
20191119093623 47 360 0.0 5.0 0.00 0.02 0.01 95 1022.2
20191119093536 47 360 1.0 5.0 0.00 0.02 0.01 95 1022.1
20191119093427 47 360 2.0 5.0 0.00 0.02 0.01 95 1022.2
20191119093341 47 360 0.0 5.0 0.00 0.02 0.01 95 1022.2
20191119093221 47 360 0.0 5.0 0.00 0.02 0.01 95 1022.1
20191119093131 47 360 0.0 5.0 0.00 0.02 0.01 95 1022.1
20191119093023 47 360 0.0 5.0 0.00 0.02 0.01 95 1022.2
20191119092934 47 360 0.0 5.0 0.00 0.02 0.01 95 1022.2
20191119092824 47 360 1.0 5.0 0.00 0.02 0.01 95 1022.1
20191119092720 47 360 4.0 5.0 0.00 0.02 0.01 95 1022.2
20191119092631 47 360 4.0 5.0 0.00 0.02 0.01 95 1022.2
20191119092522 47 360 2.0 4.0 0.00 0.02 0.01 95 1022.2
20191119092436 47 360 0.0 3.0 0.00 0.02 0.01 95 1022.2
20191119092327 47 360 0.0 2.0 0.00 0.02 0.01 95 1022.2
20191119092217 47 360 0.0 2.0 0.00 0.02 0.01 95 1022.3
20191119092128 47 360 0.0 2.0 0.00 0.02 0.01 95 1022.3
20191119092018 47 360 1.0 2.0 0.00 0.02 0.01 95 1022.4
20191119091932 47 360 1.0 2.0 0.00 0.02 0.01 95 1022.3
20191119091725 47 360 0.0 5.0 0.00 0.02 0.01 95 1022.4
20191119091634 47 360 0.0 5.0 0.00 0.02 0.01 95 1022.4
20191119091524 47 360 0.0 5.0 0.00 0.02 0.01 95 1022.4
20191119091418 47 360 0.0 5.0 0.00 0.02 0.01 95 1022.4
20191119091328 47 360 0.0 5.0 0.00 0.02 0.01 95 1022.4
20191119091217 47 360 0.0 5.0 0.00 0.02 0.01 95 1022.4
20191119091128 47 360 0.0 5.0 0.00 0.02 0.01 95 1022.4
20191119091018 47 5 3.0 5.0 0.00 0.02 0.01 95 1022.4
20191119090929 47 9 2.0 5.0 0.00 0.02 0.01 95 1022.4
20191119090821 47 9 0.0 0.0 0.00 0.02 0.01 95 1022.5
20191119090730 47 12 0.0 0.0 0.00 0.02 0.01 95 1022.4
20191119090620 47 12 0.0 0.0 0.00 0.02 0.01 95 1022.4
20191119090531 47 12 0.0 0.0 0.00 0.02 0.01 95 1022.4
20191119090422 47 360 0.0 0.0 0.00 0.02 0.01 95 1022.5
20191119090340 47 360 0.0 0.0 0.00 0.02 0.01 95 1022.4
20191119090219 47 360 0.0 3.0 0.00 0.02 0.01 95 1022.4
20191119090130 46 360 0.0 3.0 0.00 0.02 0.01 95 1022.4
20191119090020 46 360 0.0 3.0 0.00 0.02 0.01 95 1022.4
20191119085931 46 360 0.0 3.0 0.00 0.02 0.01 95 1022.5
20191119085821 46 360 0.0 4.0 0.00 0.02 0.01 95 1022.4
20191119085736 46 360 0.0 4.0 0.00 0.02 0.01 95 1022.5
20191119085627 46 360 0.0 4.0 0.00 0.02 0.01 94 1022.6
20191119085518 46 360 0.0 4.0 0.00 0.02 0.01 94 1022.5
20191119085428 46 360 0.0 4.0 0.00 0.02 0.01 94 1022.6
20191119085335 46 360 0.0 4.0 0.00 0.02 0.01 94 1022.6
20191119085226 46 360 0.0 4.0 0.00 0.02 0.01 94 1022.5
20191119085120 46 360 0.0 4.0 0.00 0.02 0.01 94 1022.6
20191119085031 46 360 1.0 4.0 0.00 0.02 0.01 94 1022.6
20191119084922 46 360 1.0 4.0 0.00 0.02 0.01 94 1022.5
20191119084835 46 360 0.0 3.0 0.00 0.02 0.01 94 1022.5
20191119084734 46 360 1.0 3.0 0.00 0.02 0.01 94 1022.6
20191119084628 46 360 0.0 4.0 0.00 0.02 0.01 94 1022.5
20191119084519 46 360 0.0 4.0 0.00 0.02 0.01 94 1022.6
20191119084429 46 360 0.0 4.0 0.00 0.02 0.01 94 1022.8
20191119084320 46 360 0.0 4.0 0.00 0.02 0.01 94 1022.8
20191119084232 46 360 0.0 4.0 0.00 0.02 0.01 94 1022.8
20191119084125 46 360 0.0 4.0 0.00 0.02 0.01 94 1022.8
20191119084035 46 360 0.0 4.0 0.00 0.02 0.01 94 1022.8
20191119083924 46 360 0.0 4.0 0.00 0.02 0.01 94 1022.8
20191119083835 46 360 1.0 4.0 0.00 0.02 0.01 94 1022.8
20191119083726 46 360 3.0 4.0 0.00 0.02 0.01 94 1022.8
20191119083621 46 360 2.0 4.0 0.00 0.02 0.01 94 1022.8
20191119083531 46 360 0.0 4.0 0.00 0.02 0.01 94 1022.9
20191119083422 46 360 2.0 4.0 0.00 0.02 0.01 94 1022.8
20191119083336 46 360 1.0 4.0 0.00 0.02 0.01 94 1022.9
20191119083234 46 360 0.0 5.0 0.00 0.02 0.01 94 1022.8
20191119083124 46 360 0.0 5.0 0.00 0.02 0.01 94 1022.8
20191119083018 46 360 0.0 5.0 0.00 0.02 0.01 94 1022.8
20191119082926 46 360 0.0 5.0 0.00 0.02 0.01 94 1022.8
20191119082836 46 13 0.0 5.0 0.00 0.02 0.01 94 1022.8
20191119082727 45 360 1.0 5.0 0.00 0.02 0.01 94 1022.8
20191119082618 46 360 0.0 5.0 0.00 0.02 0.01 94 1022.8
20191119082531 45 360 1.0 5.0 0.00 0.02 0.01 94 1022.8
20191119082422 45 360 3.0 5.0 0.00 0.02 0.01 94 1022.9
20191119082333 46 360 1.0 5.0 0.00 0.02 0.01 94 1022.8
20191119082223 46 360 0.0 4.0 0.00 0.02 0.01 94 1022.8
20191119082134 46 360 0.0 4.0 0.00 0.02 0.01 94 1022.8
20191119082029 46 360 0.0 4.0 0.00 0.02 0.01 94 1022.9
20191119081920 46 360 1.0 6.0 0.00 0.02 0.01 94 1022.9
20191119081832 46 360 2.0 6.0 0.00 0.02 0.01 94 1022.8
20191119081732 46 360 2.0 6.0 0.00 0.02 0.01 94 1022.9
20191119081624 45 360 0.0 6.0 0.00 0.02 0.01 94 1022.9
20191119081532 45 360 0.0 6.0 0.00 0.02 0.01 94 1022.9
20191119081427 45 11 0.0 6.0 0.00 0.02 0.01 94 1022.8
20191119081317 45 14 0.0 6.0 0.00 0.02 0.01 94 1022.9
20191119081227 45 15 0.0 6.0 0.00 0.02 0.01 94 1022.9
20191119081118 45 15 4.0 6.0 0.00 0.02 0.01 94 1022.9
20191119081029 45 5 4.0 6.0 0.00 0.02 0.01 94 1023.0
20191119080923 45 360 0.0 0.0 0.00 0.02 0.01 94 1022.9
20191119080831 45 360 0.0 0.0 0.00 0.02 0.01 94 1022.9
20191119080721 45 360 0.0 0.0 0.00 0.02 0.01 94 1022.9
20191119080632 45 360 0.0 0.0 0.00 0.02 0.01 94 1022.9
20191119080523 45 360 0.0 0.0 0.00 0.02 0.01 94 1022.8
20191119080436 45 360 0.0 0.0 0.00 0.02 0.01 94 1022.9
20191119080329 45 360 0.0 0.0 0.00 0.02 0.01 94 1022.8
20191119080226 45 5 0.0 0.0 0.00 0.02 0.01 94 1022.8
20191119080136 45 5 0.0 0.0 0.00 0.02 0.01 94 1022.8
20191119080046 45 5 0.0 0.0 0.00 0.02 0.01 93 1022.8
20191119075930 45 5 0.0 0.0 0.00 0.02 0.01 93 1022.8
20191119075821 45 5 0.0 0.0 0.00 0.02 0.01 93 1022.8
20191119075735 45 360 0.0 0.0 0.00 0.02 0.01 93 1022.7
20191119075625 45 360 0.0 0.0 0.00 0.02 0.01 93 1022.7
20191119075533 45 360 0.0 0.0 0.00 0.02 0.01 93 1022.7
20191119075423 45 360 0.0 0.0 0.00 0.02 0.01 93 1022.7
20191119075334 45 360 0.0 0.0 0.00 0.02 0.01 93 1022.6
20191119075225 45 360 0.0 0.0 0.00 0.02 0.01 93 1022.6
20191119075119 45 360 0.0 0.0 0.00 0.02 0.01 93 1022.6
20191119075029 45 360 0.0 0.0 0.00 0.02 0.01 93 1022.6
20191119074919 45 360 0.0 0.0 0.00 0.02 0.01 93 1022.6
20191119074832 45 360 0.0 0.0 0.00 0.02 0.01 93 1022.6
20191119074731 45 360 0.0 0.0 0.00 0.02 0.01 94 1022.6
20191119074625 45 360 0.0 0.0 0.00 0.02 0.01 94 1022.6
20191119074535 45 360 0.0 0.0 0.00 0.02 0.01 94 1022.7
20191119074425 45 360 0.0 0.0 0.00 0.02 0.01 94 1022.7
20191119074336 45 360 0.0 0.0 0.00 0.02 0.01 94 1022.7
20191119074226 45 360 0.0 0.0 0.00 0.02 0.01 94 1022.7
20191119074120 45 360 0.0 0.0 0.00 0.02 0.01 94 1022.6
20191119074031 45 360 0.0 0.0 0.00 0.02 0.01 94 1022.7
20191119073921 45 360 0.0 0.0 0.00 0.02 0.01 94 1022.7
20191119073831 45 360 0.0 0.0 0.00 0.02 0.01 94 1022.7
20191119073720 45 360 0.0 0.0 0.00 0.02 0.01 94 1022.7
20191119073631 45 360 0.0 0.0 0.00 0.02 0.01 94 1022.7
20191119073525 45 360 0.0 0.0 0.00 0.02 0.01 94 1022.8
20191119073434 45 360 0.0 0.0 0.00 0.02 0.01 94 1022.8
20191119073224 45 360 0.0 0.0 0.00 0.02 0.01 94 1022.8
20191119073132 45 360 0.0 0.0 0.00 0.02 0.01 93 1022.8
20191119073026 45 360 0.0 0.0 0.00 0.02 0.01 93 1022.8
20191119072917 45 360 0.0 0.0 0.00 0.02 0.01 93 1022.8
20191119072828 44 360 0.0 0.0 0.00 0.02 0.01 93 1022.8
20191119072719 44 360 0.0 0.0 0.00 0.02 0.01 93 1022.8
20191119072629 44 360 0.0 0.0 0.00 0.02 0.01 94 1022.9
20191119072523 44 360 0.0 0.0 0.00 0.02 0.01 94 1022.9
20191119072433 44 360 0.0 0.0 0.00 0.02 0.01 94 1022.9
20191119072323 44 360 0.0 0.0 0.00 0.02 0.01 94 1022.8
20191119072234 44 360 0.0 0.0 0.00 0.02 0.01 94 1022.8
20191119072125 44 360 0.0 0.0 0.00 0.02 0.01 94 1022.9
20191119072019 44 360 0.0 0.0 0.00 0.02 0.01 94 1022.8
20191119071929 44 360 0.0 0.0 0.00 0.02 0.01 94 1022.8
20191119071842 44 360 0.0 0.0 0.00 0.02 0.01 94 1022.7
20191119071718 44 360 0.0 0.0 0.00 0.02 0.01 94 1022.7
20191119071629 44 360 0.0 0.0 0.00 0.02 0.01 94 1022.7
20191119071518 44 360 0.0 0.0 0.00 0.02 0.01 94 1022.8
20191119071432 44 360 0.0 0.0 0.00 0.02 0.01 93 1022.8
20191119071323 44 360 0.0 0.0 0.00 0.02 0.01 93 1022.8
20191119071234 44 360 0.0 0.0 0.00 0.02 0.01 93 1022.8
20191119071125 44 360 0.0 0.0 0.00 0.02 0.01 93 1022.8
20191119071035 44 360 0.0 0.0 0.00 0.02 0.01 93 1022.8
20191119070928 44 360 0.0 0.0 0.00 0.02 0.01 93 1022.8
20191119070818 44 360 0.0 0.0 0.00 0.02 0.01 93 1022.8
20191119070727 44 360 0.0 0.0 0.00 0.02 0.01 93 1022.8
20191119070637 44 360 0.0 0.0 0.00 0.02 0.01 93 1022.8
20191119070526 44 360 0.0 0.0 0.00 0.02 0.01 93 1022.9